M I D A S
Marine Information and Data Acquisition System
Tripno 2147 of the Zeeleeuw from 2011-07-18 07:07:04 to 2011-07-18 13:53:03
Back to CruiseResearch ActivitiesStationsMapUnderway DataData graphs

EquipmentUnitsComment
TimeDGPSUTC
LatitudeDGPSDM.mWGS84
LongitudeDGPSDM.mWGS84
TemperatureSBE03/SBE38deg celciusITS90
ConductivitySBE21S/mITS90
SalinitySBE21 Practical Salinity Units
ChlorophylAChelsea fluorimeterg/lCalibrated in Aceton
Missing or incorrect values are displayed as -999
Sea surface data collected by the RV Zeeleeuw from 2011-07-18 06:54:56 to 2011-07-18 15:36:40
                                                                                    Next 1000 lines
Time Latitude Longitude Temperature Conductivity Salinity ChlorophylA
2011-07-18 06:55:08 51°13.637 2°56.016 19.8667 0.006316 0.038905 -3.020363
2011-07-18 06:55:12 51°13.638 2°56.013 19.889 0.006316 0.038905 -3.020363
2011-07-18 06:55:16 51°13.639 2°56.01 19.8866 0.006316 0.038905 -3.020363
2011-07-18 06:55:23 51°13.641 2°56.003 19.8775 0.006316 0.038905 -3.020363
2011-07-18 06:55:28 51°13.642 2°55.997 19.8921 0.006316 0.038905 -3.020363
2011-07-18 06:55:34 51°13.645 2°55.99 19.8912 0.006316 0.038905 -3.020363
2011-07-18 06:55:40 51°13.647 2°55.981 19.9015 0.006316 0.038905 -3.020363
2011-07-18 06:55:45 51°13.649 2°55.974 19.8966 0.006316 0.038905 -3.020363
2011-07-18 06:55:51 51°13.652 2°55.965 19.9041 0.006316 0.038905 -3.020363
2011-07-18 06:55:56 51°13.654 2°55.957 19.9036 0.006316 0.038905 -3.020363
2011-07-18 06:56:00 51°13.655 2°55.95 19.9079 0.006316 0.038905 -3.020363
2011-07-18 06:56:06 51°13.658 2°55.941 19.8895 0.006316 0.038905 -3.020363
2011-07-18 06:56:11 51°13.659 2°55.933 19.8975 0.006316 0.038905 -3.020363
2011-07-18 06:56:16 51°13.661 2°55.925 19.9074 0.006316 0.038905 -3.020363
2011-07-18 06:56:20 51°13.662 2°55.918 19.9113 0.006316 0.038905 -3.020363
2011-07-18 06:56:26 51°13.665 2°55.908 19.9147 0.006316 0.038904 -3.020363
2011-07-18 06:56:31 51°13.666 2°55.901 19.8914 0.006316 0.038904 -3.020363
2011-07-18 06:56:36 51°13.668 2°55.892 19.901 0.006316 0.038905 -3.020363
2011-07-18 06:56:40 51°13.67 2°55.886 19.9031 0.006316 0.038905 -3.020363
2011-07-18 06:56:46 51°13.672 2°55.876 19.9119 0.006316 0.038904 -3.020363
2011-07-18 06:56:51 51°13.674 2°55.868 19.9004 0.006316 0.038904 -3.020363
2011-07-18 06:56:56 51°13.676 2°55.86 19.9048 0.006316 0.038905 -3.020363
2011-07-18 06:57:00 51°13.677 2°55.853 19.9053 0.006316 0.038904 -3.020363
2011-07-18 06:57:06 51°13.679 2°55.844 19.906 0.006316 0.038904 -3.020363
2011-07-18 06:57:11 51°13.681 2°55.836 19.9067 0.006316 0.038904 -3.020363
2011-07-18 06:57:16 51°13.683 2°55.829 19.9075 0.006316 0.038905 -3.020363
2011-07-18 06:57:21 51°13.684 2°55.821 19.9096 0.006316 0.038905 -3.020363
2011-07-18 06:57:26 51°13.685 2°55.814 19.9119 0.006316 0.038904 -3.020363
2011-07-18 06:57:31 51°13.686 2°55.806 19.9066 0.006316 0.038904 -3.020363
2011-07-18 06:57:36 51°13.687 2°55.799 19.9027 0.006316 0.038904 -3.020363
2011-07-18 06:57:40 51°13.687 2°55.794 19.9003 0.006316 0.038904 -3.020363
2011-07-18 06:57:46 51°13.689 2°55.785 19.9023 0.006316 0.038904 -3.020363
2011-07-18 06:57:51 51°13.689 2°55.779 19.9129 0.006316 0.038904 -3.020363
2011-07-18 06:57:56 51°13.69 2°55.774 19.902 0.006316 0.038904 -3.020363
2011-07-18 06:58:00 51°13.691 2°55.771 19.9165 0.006316 0.038904 -3.020363
2011-07-18 06:58:06 51°13.691 2°55.768 19.9278 0.006316 0.038904 -3.020363
2011-07-18 06:58:11 51°13.692 2°55.767 19.9322 0.006316 0.038904 -3.020363
2011-07-18 06:58:16 51°13.692 2°55.767 19.918 0.006316 0.038904 -3.020363
2011-07-18 06:58:20 51°13.693 2°55.767 19.9052 0.006316 0.038904 -3.020363
2011-07-18 06:58:26 51°13.694 2°55.768 19.9146 0.006316 0.038904 -3.020363
2011-07-18 06:58:31 51°13.695 2°55.769 19.9178 0.006316 0.038904 -3.020363
2011-07-18 06:58:36 51°13.696 2°55.77 19.9179 0.006316 0.038904 -3.020363
2011-07-18 06:58:40 51°13.697 2°55.77 19.9119 0.006316 0.038904 -3.020363
2011-07-18 06:58:46 51°13.698 2°55.771 19.8601 0.006316 0.038904 -3.020363
2011-07-18 06:58:51 51°13.699 2°55.771 19.8761 0.006316 0.038904 -3.020363
2011-07-18 06:58:56 51°13.7 2°55.771 19.8958 0.006316 0.038904 -3.020363
2011-07-18 06:59:00 51°13.7 2°55.77 19.8299 0.006316 0.038904 -3.020363
2011-07-18 06:59:06 51°13.7 2°55.769 19.8539 0.006316 0.038904 -3.020363
2011-07-18 06:59:11 51°13.699 2°55.768 19.8724 0.006316 0.038904 -3.020363
2011-07-18 06:59:16 51°13.698 2°55.766 19.8524 0.006316 0.038904 -3.020363
2011-07-18 06:59:20 51°13.697 2°55.764 19.882 0.006316 0.038904 -3.020363
2011-07-18 06:59:26 51°13.695 2°55.762 19.912 0.006316 0.038904 -3.020363
2011-07-18 06:59:31 51°13.693 2°55.76 19.9106 0.006316 0.038904 -3.020363
2011-07-18 06:59:36 51°13.692 2°55.758 19.9163 0.006316 0.038904 -3.020363
2011-07-18 06:59:40 51°13.691 2°55.757 19.9203 0.006316 0.038904 -3.020363
2011-07-18 06:59:46 51°13.69 2°55.756 19.9278 0.006316 0.038904 -3.020363
2011-07-18 06:59:51 51°13.691 2°55.756 19.9392 0.006316 0.038904 -3.020363
2011-07-18 06:59:56 51°13.692 2°55.756 19.9468 0.006316 0.038904 -3.020363
2011-07-18 07:00:00 51°13.694 2°55.756 19.9499 0.006316 0.038904 -3.020363
2011-07-18 07:00:06 51°13.698 2°55.755 19.9488 0.006316 0.038904 -3.020363
2011-07-18 07:00:11 51°13.702 2°55.753 19.9502 0.006316 0.038904 -3.020363
2011-07-18 07:00:16 51°13.707 2°55.751 19.9488 0.006316 0.038904 -3.020363
2011-07-18 07:00:20 51°13.712 2°55.749 19.9432 0.006316 0.038904 -3.020363
2011-07-18 07:00:26 51°13.72 2°55.743 19.9318 0.006316 0.038903 -3.020363
2011-07-18 07:00:31 51°13.727 2°55.738 19.9161 0.006316 0.038904 -3.020363
2011-07-18 07:00:36 51°13.734 2°55.732 19.9098 0.006316 0.038904 -3.020363
2011-07-18 07:00:40 51°13.74 2°55.726 19.8936 0.006316 0.038904 -3.020363
2011-07-18 07:00:46 51°13.749 2°55.717 19.8822 0.006316 0.038903 -3.020363
2011-07-18 07:00:51 51°13.758 2°55.709 19.8854 0.006316 0.038903 -3.020363
2011-07-18 07:00:56 51°13.766 2°55.701 19.8673 0.006316 0.038903 -3.020363
2011-07-18 07:01:00 51°13.773 2°55.694 19.895 0.006316 0.038903 -3.020363
2011-07-18 07:01:06 51°13.784 2°55.683 19.8597 0.006316 0.038903 -3.020363
2011-07-18 07:01:11 51°13.793 2°55.674 19.88 0.006316 0.038903 -3.020363
2011-07-18 07:01:16 51°13.803 2°55.665 19.8662 0.006316 0.038903 -3.020363
2011-07-18 07:01:20 51°13.81 2°55.658 19.8645 0.006316 0.038903 -3.020363
2011-07-18 07:01:25 51°13.82 2°55.65 19.8724 0.006316 0.038903 -3.020363
2011-07-18 07:01:31 51°13.832 2°55.639 19.8693 0.006316 0.038903 -3.020363
2011-07-18 07:01:36 51°13.843 2°55.631 19.8775 0.006316 0.038903 -3.020363
2011-07-18 07:01:40 51°13.851 2°55.624 19.893 0.006316 0.038903 -3.020363
2011-07-18 07:01:46 51°13.864 2°55.614 19.8827 0.006316 0.038903 -3.020363
2011-07-18 07:01:51 51°13.875 2°55.605 19.899 0.006316 0.038903 -3.020363
2011-07-18 07:01:56 51°13.885 2°55.597 19.9164 0.006316 0.038903 -3.020363
2011-07-18 07:02:01 51°13.896 2°55.588 19.8693 0.006316 0.038903 -3.020363
2011-07-18 07:02:06 51°13.907 2°55.58 19.8802 0.006316 0.038903 -3.020363
2011-07-18 07:02:11 51°13.918 2°55.572 19.8733 0.006316 0.038903 -3.020363
2011-07-18 07:02:16 51°13.929 2°55.564 19.8788 0.006316 0.038903 -3.020363
2011-07-18 07:02:20 51°13.938 2°55.558 19.8955 0.006316 0.038903 -3.020363
2011-07-18 07:02:26 51°13.952 2°55.548 19.8996 0.006316 0.038903 -3.020363
2011-07-18 07:02:31 51°13.963 2°55.541 19.92 0.006316 0.038903 -3.020363
2011-07-18 07:02:36 51°13.975 2°55.532 19.9057 0.006316 0.038903 -3.020363
2011-07-18 07:02:40 51°13.984 2°55.526 19.9073 0.006316 0.038903 -3.020363
2011-07-18 07:02:46 51°13.997 2°55.516 19.9141 0.006316 0.038903 -3.020363
2011-07-18 07:02:51 51°14.009 2°55.508 19.9052 0.006316 0.038903 -3.020363
2011-07-18 07:02:56 51°14.02 2°55.499 19.9164 0.006316 0.038903 -3.020363
2011-07-18 07:03:00 51°14.029 2°55.493 19.893 0.006316 0.038903 -3.020363
2011-07-18 07:03:05 51°14.041 2°55.484 19.8683 0.006316 0.038902 -3.020363
2011-07-18 07:03:11 51°14.055 2°55.475 19.8969 0.006316 0.038902 -3.020363
2011-07-18 07:03:16 51°14.066 2°55.467 19.911 0.006316 0.038902 -3.020363
2011-07-18 07:03:20 51°14.075 2°55.461 19.8738 0.006316 0.038902 -3.020363
2011-07-18 07:03:26 51°14.089 2°55.451 19.9038 0.006316 0.038902 -3.020363
2011-07-18 07:03:31 51°14.101 2°55.443 19.9044 0.006316 0.038902 -3.020363
2011-07-18 07:03:36 51°14.112 2°55.435 19.9235 0.006316 0.038902 -3.020363
2011-07-18 07:03:40 51°14.121 2°55.428 19.9201 0.006316 0.038902 -3.020363
2011-07-18 07:03:46 51°14.136 2°55.418 19.9198 0.006316 0.038902 -3.020363
2011-07-18 07:03:51 51°14.147 2°55.409 19.8981 0.006316 0.038902 -3.020363
2011-07-18 07:03:56 51°14.158 2°55.399 19.9077 0.006316 0.038902 -3.020363
2011-07-18 07:04:01 51°14.17 2°55.39 19.9136 0.006316 0.038902 -3.020363
2011-07-18 07:04:06 51°14.182 2°55.38 19.911 0.006316 0.038902 -3.020363
2011-07-18 07:04:11 51°14.193 2°55.369 19.9056 0.006316 0.038902 -3.020363
2011-07-18 07:04:16 51°14.204 2°55.358 19.8697 0.006316 0.038902 -3.020363
2011-07-18 07:04:21 51°14.215 2°55.348 19.9123 0.006316 0.038901 -3.020363
2011-07-18 07:04:26 51°14.226 2°55.336 19.9063 0.006316 0.038901 -3.020363
2011-07-18 07:04:31 51°14.237 2°55.325 19.8284 0.006316 0.038901 -3.020363
2011-07-18 07:04:36 51°14.25 2°55.315 19.8779 0.006316 0.038901 -3.020363
2011-07-18 07:04:40 51°14.259 2°55.307 19.8844 0.006316 0.038901 -3.020363
2011-07-18 07:04:46 51°14.273 2°55.293 19.8753 0.006316 0.038901 -3.020363
2011-07-18 07:04:51 51°14.285 2°55.281 19.8522 0.006316 0.038901 -3.020363
2011-07-18 07:04:56 51°14.296 2°55.269 19.8875 0.006316 0.038901 -3.020363
2011-07-18 07:05:00 51°14.304 2°55.259 19.8597 0.006316 0.038901 -3.020363
2011-07-18 07:05:04 51°14.314 2°55.249 19.812 0.006316 0.038901 -3.020363
2011-07-18 07:05:10 51°14.328 2°55.234 19.851 0.006316 0.038901 -3.020363
2011-07-18 07:05:15 51°14.34 2°55.221 19.8491 0.006316 0.038901 -3.020363
2011-07-18 07:05:20 51°14.351 2°55.209 19.8092 0.006316 0.038901 -3.020363
2011-07-18 07:05:25 51°14.363 2°55.196 19.8458 0.006316 0.038901 -3.020363
2011-07-18 07:05:30 51°14.374 2°55.182 19.7982 0.006316 0.038901 -3.020363
2011-07-18 07:05:35 51°14.386 2°55.17 19.8476 0.006316 0.038901 -3.020363
2011-07-18 07:05:40 51°14.398 2°55.157 19.814 0.006316 0.038901 -3.020363
2011-07-18 07:05:44 51°14.408 2°55.146 19.7996 0.006316 0.038901 -3.020363
2011-07-18 07:05:49 51°14.42 2°55.133 19.8444 0.006316 0.038901 -3.020363
2011-07-18 07:05:54 51°14.433 2°55.12 19.7809 0.006316 0.038901 -3.020363
2011-07-18 07:05:59 51°14.445 2°55.107 19.8094 0.006316 0.038901 -3.020363
2011-07-18 07:06:04 51°14.458 2°55.094 19.839 0.006316 0.038901 -3.020363
2011-07-18 07:06:08 51°14.468 2°55.083 19.7928 0.006316 0.038901 -3.020363
2011-07-18 07:06:13 51°14.481 2°55.07 19.8249 0.006316 0.038901 -3.020363
2011-07-18 07:06:18 51°14.494 2°55.056 19.7872 0.006316 0.038901 -3.020363
2011-07-18 07:06:23 51°14.507 2°55.042 19.8121 0.006316 0.038901 -3.020363
2011-07-18 07:06:28 51°14.52 2°55.028 19.8231 0.006316 0.038901 -3.020363
2011-07-18 07:06:32 51°14.53 2°55.016 19.8426 0.006316 0.038901 -3.020363
2011-07-18 07:06:37 51°14.542 2°55 19.8298 0.006316 0.038901 -3.020363
2011-07-18 07:06:43 51°14.557 2°54.98 19.8165 0.006316 0.0389 -3.020363
2011-07-18 07:06:48 51°14.569 2°54.962 19.8255 0.006316 0.0389 -3.020363
2011-07-18 07:06:52 51°14.578 2°54.946 19.7928 0.006316 0.0389 -3.020363
2011-07-18 07:06:56 51°14.587 2°54.93 19.8077 0.006316 0.0389 -3.020363
2011-07-18 07:07:02 51°14.602 2°54.906 19.7573 0.006316 0.0389 -3.020363
2011-07-18 07:07:08 51°14.616 2°54.883 19.7865 0.006316 0.0389 -3.020363
2011-07-18 07:07:12 51°14.627 2°54.868 19.7608 0.006316 0.0389 -3.020363
2011-07-18 07:07:16 51°14.637 2°54.853 19.7823 0.006316 0.0389 -3.020363
2011-07-18 07:07:22 51°14.654 2°54.833 19.8276 0.006316 0.0389 -3.020363
2011-07-18 07:07:28 51°14.671 2°54.814 19.2208 0.006316 0.038904 -3.020363
2011-07-18 07:07:32 51°14.683 2°54.802 18.8615 0.006316 0.038918 -3.020363
2011-07-18 07:07:36 51°14.696 2°54.791 18.4294 0.006316 0.038918 -3.020363
2011-07-18 07:07:42 51°14.715 2°54.775 18.2454 0.009195 0.05449 -3.020363
2011-07-18 07:07:48 51°14.733 2°54.759 18.016 3.822657 28.257217 -3.020363
2011-07-18 07:07:52 51°14.746 2°54.75 17.9662 3.915374 28.536695 -3.020363
2011-07-18 07:07:56 51°14.758 2°54.74 17.8031 4.249331 31.188497 -3.020363
2011-07-18 07:08:02 51°14.778 2°54.725 17.7616 4.119638 30.093811 -3.020363
2011-07-18 07:08:08 51°14.797 2°54.71 17.7099 4.119638 30.093811 -3.020363
2011-07-18 07:08:12 51°14.809 2°54.7 17.6468 4.10461 30.099258 -3.020363
2011-07-18 07:08:18 51°14.828 2°54.684 17.593 4.118296 30.406314 -3.020363
2011-07-18 07:08:23 51°14.843 2°54.67 17.5643 4.17096 31.019009 -3.020363
2011-07-18 07:08:28 51°14.859 2°54.658 17.5527 4.21658 31.568391 -3.020363
2011-07-18 07:08:32 51°14.871 2°54.647 17.5364 4.234311 31.853045 -3.020363
2011-07-18 07:08:38 51°14.89 2°54.632 17.5222 4.234311 31.853045 -3.020363
2011-07-18 07:08:43 51°14.906 2°54.62 17.4951 4.273195 32.270584 -3.020363
2011-07-18 07:08:48 51°14.921 2°54.606 17.4758 4.295594 32.530503 -3.020363
2011-07-18 07:08:52 51°14.934 2°54.595 17.4671 4.277553 32.442493 -3.020363
2011-07-18 07:08:57 51°14.949 2°54.582 17.4575 4.303685 32.708775 -3.020363
2011-07-18 07:09:02 51°14.965 2°54.569 17.449 4.316233 32.850122 -3.020363
2011-07-18 07:09:08 51°14.983 2°54.553 17.41 4.316233 32.850122 -3.020363
2011-07-18 07:09:12 51°14.995 2°54.543 17.4379 4.319448 32.905878 -3.020363
2011-07-18 07:09:17 51°15.01 2°54.529 17.4129 4.321107 32.944596 -3.020363
2011-07-18 07:09:22 51°15.026 2°54.516 17.4251 4.312605 32.899317 -3.020363
2011-07-18 07:09:28 51°15.044 2°54.499 17.4022 4.32619 33.030115 -3.020363
2011-07-18 07:09:32 51°15.057 2°54.489 17.3778 4.349731 33.24747 -3.020363
2011-07-18 07:09:37 51°15.072 2°54.476 17.4007 4.349731 33.24747 -3.020363
2011-07-18 07:09:42 51°15.088 2°54.464 17.3857 4.355539 33.314833 -3.020363
2011-07-18 07:09:48 51°15.107 2°54.452 17.3862 4.351183 33.288743 -3.020363
2011-07-18 07:09:52 51°15.12 2°54.444 17.3629 4.173565 31.78465 -3.020363
2011-07-18 07:09:57 51°15.136 2°54.436 17.3669 4.367777 33.451847 -3.020363
2011-07-18 07:10:02 51°15.153 2°54.429 17.3729 4.372029 33.499513 -3.020363
2011-07-18 07:10:08 51°15.173 2°54.422 17.3887 4.372029 33.499513 -3.020363
2011-07-18 07:10:12 51°15.187 2°54.417 17.3693 4.37234 33.510784 -3.020363
2011-07-18 07:10:17 51°15.203 2°54.411 17.3655 4.374519 33.533429 -3.020363
2011-07-18 07:10:22 51°15.22 2°54.406 17.3663 4.376697 33.556744 -3.020363
2011-07-18 07:10:28 51°15.24 2°54.401 17.3618 4.379393 33.585843 -3.020363
2011-07-18 07:10:32 51°15.254 2°54.398 17.3321 4.379912 33.595604 -3.020363
2011-07-18 07:10:37 51°15.271 2°54.396 17.3461 4.379912 33.595604 -3.020363
2011-07-18 07:10:42 51°15.288 2°54.392 17.3373 4.380016 33.596494 -3.020363
2011-07-18 07:10:48 51°15.309 2°54.39 17.324 4.378667 33.583599 -3.020363
2011-07-18 07:10:52 51°15.323 2°54.386 17.3187 4.381053 33.608715 -3.020363
2011-07-18 07:10:57 51°15.34 2°54.385 17.3282 4.380949 33.613807 -3.020363
2011-07-18 07:11:02 51°15.357 2°54.382 17.3143 4.380534 33.616231 -3.020363
2011-07-18 07:11:08 51°15.379 2°54.379 17.3093 4.380534 33.616231 -3.020363
2011-07-18 07:11:12 51°15.392 2°54.376 17.3075 4.38292 33.643363 -3.020363
2011-07-18 07:11:17 51°15.41 2°54.373 17.3087 4.386965 33.684094 -3.020363
2011-07-18 07:11:22 51°15.427 2°54.37 17.3096 4.388313 33.702346 -3.020363
2011-07-18 07:11:28 51°15.448 2°54.366 17.3141 4.389247 33.71704 -3.020363
2011-07-18 07:11:32 51°15.462 2°54.364 17.314 4.39101 33.736868 -3.020363
2011-07-18 07:11:37 51°15.48 2°54.361 17.313 4.39101 33.736868 -3.020363
2011-07-18 07:11:42 51°15.497 2°54.357 17.3002 4.391321 33.74489 -3.020363
2011-07-18 07:11:48 51°15.518 2°54.354 17.308 4.38904 33.728616 -3.020363
2011-07-18 07:11:52 51°15.532 2°54.35 17.3107 4.393603 33.771196 -3.020363
2011-07-18 07:11:57 51°15.55 2°54.348 17.3069 4.393811 33.772979 -3.020363
2011-07-18 07:12:02 51°15.567 2°54.342 17.3029 4.392877 33.764284 -3.020363
2011-07-18 07:12:08 51°15.588 2°54.338 17.3038 4.392877 33.764284 -3.020363
2011-07-18 07:12:12 51°15.602 2°54.333 17.2978 4.394329 33.777439 -3.020363
2011-07-18 07:12:17 51°15.619 2°54.329 17.2882 4.390492 33.747785 -3.020363
2011-07-18 07:12:22 51°15.636 2°54.323 17.2855 4.387277 33.721476 -3.020363
2011-07-18 07:12:28 51°15.657 2°54.317 17.2821 4.367571 33.55211 -3.020363
2011-07-18 07:12:32 51°15.67 2°54.311 17.2856 4.378772 33.649032 -3.020363
2011-07-18 07:12:37 51°15.687 2°54.304 17.2936 4.378772 33.649032 -3.020363
2011-07-18 07:12:42 51°15.704 2°54.3 17.2894 4.370475 33.579723 -3.020363
2011-07-18 07:12:48 51°15.725 2°54.294 17.2796 4.38738 33.728384 -3.020363
2011-07-18 07:12:52 51°15.738 2°54.291 17.2856 4.389247 33.749121 -3.020363
2011-07-18 07:12:57 51°15.755 2°54.287 17.2844 4.392048 33.777228 -3.020363
2011-07-18 07:13:02 51°15.772 2°54.285 17.2814 4.392255 33.781692 -3.020363
2011-07-18 07:13:08 51°15.792 2°54.284 17.2781 4.392255 33.781692 -3.020363
2011-07-18 07:13:12 51°15.806 2°54.285 17.2823 4.387173 33.735962 -3.020363
2011-07-18 07:13:17 51°15.823 2°54.286 17.2852 4.384684 33.715219 -3.020363
2011-07-18 07:13:22 51°15.839 2°54.291 17.291 4.394226 33.798648 -3.020363
2011-07-18 07:13:28 51°15.86 2°54.294 17.2833 4.398375 33.835021 -3.020363
2011-07-18 07:13:32 51°15.873 2°54.3 17.2769 4.395885 33.815611 -3.020363
2011-07-18 07:13:37 51°15.89 2°54.305 17.2759 4.395885 33.815611 -3.020363
2011-07-18 07:13:43 51°15.91 2°54.312 17.2731 4.414347 33.975903 -3.020363
2011-07-18 07:13:48 51°15.926 2°54.317 17.2737 4.417563 34.003598 -3.020363
2011-07-18 07:13:52 51°15.939 2°54.324 17.2675 4.420052 34.023017 -3.020363
2011-07-18 07:13:57 51°15.956 2°54.33 17.27 4.414244 33.971641 -3.020363
2011-07-18 07:14:03 51°15.976 2°54.338 17.2655 4.422438 34.043568 -3.020363
2011-07-18 07:14:08 51°15.992 2°54.344 17.265 4.422438 34.043568 -3.020363
2011-07-18 07:14:12 51°16.006 2°54.348 17.2603 4.427416 34.089167 -3.020363
2011-07-18 07:14:17 51°16.021 2°54.355 17.2619 4.429387 34.108857 -3.020363
2011-07-18 07:14:22 51°16.037 2°54.359 17.2625 4.437685 34.18242 -3.020363
2011-07-18 07:14:28 51°16.056 2°54.363 17.2596 4.440175 34.205921 -3.020363
2011-07-18 07:14:32 51°16.068 2°54.366 17.2578 4.439552 34.20259 -3.020363
2011-07-18 07:14:37 51°16.082 2°54.367 17.2608 4.439552 34.20259 -3.020363
2011-07-18 07:14:42 51°16.095 2°54.367 17.267 4.442768 34.232359 -3.020363
2011-07-18 07:14:48 51°16.109 2°54.365 17.2618 4.448784 34.286297 -3.020363
2011-07-18 07:14:52 51°16.118 2°54.363 17.2592 4.443286 34.24091 -3.020363
2011-07-18 07:14:57 51°16.129 2°54.36 17.2581 4.44951 34.295965 -3.020363
2011-07-18 07:15:02 51°16.139 2°54.356 17.2552 4.445568 34.263316 -3.020363
2011-07-18 07:15:08 51°16.15 2°54.352 17.259 4.445568 34.263316 -3.020363
2011-07-18 07:15:12 51°16.157 2°54.348 17.2551 4.45117 34.31233 -3.020363
2011-07-18 07:15:17 51°16.166 2°54.344 17.2583 4.450962 34.309859 -3.020363
2011-07-18 07:15:22 51°16.174 2°54.34 17.2585 4.454489 34.340295 -3.020363
2011-07-18 07:15:28 51°16.183 2°54.334 17.2589 4.45646 34.35867 -3.020363
2011-07-18 07:15:32 51°16.188 2°54.33 17.2544 4.451896 34.32064 -3.020363
2011-07-18 07:15:37 51°16.195 2°54.325 17.2521 4.451896 34.32064 -3.020363
2011-07-18 07:15:42 51°16.201 2°54.321 17.2492 4.456875 34.364981 -3.020363
2011-07-18 07:15:48 51°16.208 2°54.315 17.2513 4.456979 34.366559 -3.020363
2011-07-18 07:15:52 51°16.212 2°54.312 17.2557 4.45729 34.369245 -3.020363
2011-07-18 07:15:57 51°16.217 2°54.307 17.2494 4.457601 34.371249 -3.020363
2011-07-18 07:16:03 51°16.224 2°54.301 17.2488 4.455941 34.358286 -3.020363
2011-07-18 07:16:08 51°16.229 2°54.297 17.2476 4.455941 34.358286 -3.020363
2011-07-18 07:16:12 51°16.232 2°54.294 17.2453 4.456668 34.365919 -3.020363
2011-07-18 07:16:17 51°16.237 2°54.29 17.2432 4.457912 34.378714 -3.020363
2011-07-18 07:16:22 51°16.241 2°54.286 17.2515 4.456564 34.367071 -3.020363
2011-07-18 07:16:28 51°16.245 2°54.282 17.2473 4.455838 34.361485 -3.020363
2011-07-18 07:16:32 51°16.248 2°54.28 17.2469 4.453452 34.341569 -3.020363
2011-07-18 07:16:37 51°16.25 2°54.278 17.2481 4.453452 34.341569 -3.020363
2011-07-18 07:16:42 51°16.252 2°54.276 17.2509 4.454178 34.349885 -3.020363
2011-07-18 07:16:48 51°16.254 2°54.274 17.2441 4.458327 34.386394 -3.020363
2011-07-18 07:16:52 51°16.255 2°54.274 17.2436 4.455215 34.360888 -3.020363
2011-07-18 07:16:57 51°16.257 2°54.273 17.2421 4.458742 34.391343 -3.020363
2011-07-18 07:17:02 51°16.258 2°54.272 17.2466 4.456253 34.369162 -3.020363
2011-07-18 07:17:08 51°16.259 2°54.273 17.2478 4.456253 34.369162 -3.020363
2011-07-18 07:17:12 51°16.26 2°54.272 17.2483 4.458431 34.388656 -3.020363
2011-07-18 07:17:17 51°16.26 2°54.272 17.2446 4.45646 34.370954 -3.020363
2011-07-18 07:17:22 51°16.261 2°54.272 17.2444 4.456149 34.368949 -3.020363
2011-07-18 07:17:28 51°16.262 2°54.272 17.2409 4.455215 34.362253 -3.020363
2011-07-18 07:17:32 51°16.262 2°54.272 17.2385 4.454801 34.359353 -3.020363
2011-07-18 07:17:37 51°16.262 2°54.272 17.2394 4.454801 34.359353 -3.020363
2011-07-18 07:17:42 51°16.263 2°54.272 17.2385 4.455838 34.367627 -3.020363
2011-07-18 07:17:48 51°16.263 2°54.272 17.2368 4.454386 34.355087 -3.020363
2011-07-18 07:17:52 51°16.263 2°54.272 17.235 4.458639 34.392497 -3.020363
2011-07-18 07:17:57 51°16.264 2°54.272 17.2368 4.459054 34.397447 -3.020363
2011-07-18 07:18:02 51°16.264 2°54.272 17.2357 4.460195 34.407985 -3.020363
2011-07-18 07:18:08 51°16.265 2°54.272 17.2364 4.460195 34.407985 -3.020363
2011-07-18 07:18:12 51°16.265 2°54.273 17.2348 4.459468 34.403764 -3.020363
2011-07-18 07:18:17 51°16.266 2°54.273 17.2376 4.45978 34.407136 -3.020363
2011-07-18 07:18:23 51°16.267 2°54.273 17.2378 4.459572 34.406027 -3.020363
2011-07-18 07:18:28 51°16.267 2°54.274 17.2379 4.459883 34.409399 -3.020363
2011-07-18 07:18:32 51°16.267 2°54.273 17.2434 4.458742 34.400226 -3.020363
2011-07-18 07:18:37 51°16.267 2°54.274 17.2385 4.458742 34.400226 -3.020363
2011-07-18 07:18:42 51°16.268 2°54.274 17.2365 4.459987 34.411662 -3.020363
2011-07-18 07:18:48 51°16.268 2°54.275 17.236 4.459054 34.403598 -3.020363
2011-07-18 07:18:52 51°16.268 2°54.274 17.2345 4.458742 34.400226 -3.020363
2011-07-18 07:18:57 51°16.268 2°54.275 17.2363 4.457913 34.393058 -3.020363
2011-07-18 07:19:02 51°16.269 2°54.275 17.2321 4.459572 34.407394 -3.020363
2011-07-18 07:19:08 51°16.269 2°54.275 17.2362 4.459572 34.407394 -3.020363
2011-07-18 07:19:12 51°16.269 2°54.275 17.2386 4.45978 34.408503 -3.020363
2011-07-18 07:19:17 51°16.269 2°54.276 17.2357 4.458639 34.39933 -3.020363
2011-07-18 07:19:22 51°16.269 2°54.276 17.2337 4.460195 34.412771 -3.020363
2011-07-18 07:19:28 51°16.27 2°54.277 17.2347 4.459572 34.408762 -3.020363
2011-07-18 07:19:32 51°16.27 2°54.277 17.2335 4.459676 34.409658 -3.020363
2011-07-18 07:19:37 51°16.27 2°54.278 17.2337 4.459676 34.409658 -3.020363
2011-07-18 07:19:42 51°16.27 2°54.278 17.233 4.459883 34.412134 -3.020363
2011-07-18 07:19:48 51°16.271 2°54.279 17.229 4.458742 34.401593 -3.020363
2011-07-18 07:19:52 51°16.271 2°54.28 17.2301 4.459365 34.407653 -3.020363
2011-07-18 07:19:57 51°16.271 2°54.28 17.2301 4.459261 34.407441 -3.020363
2011-07-18 07:20:03 51°16.271 2°54.281 17.2294 4.458639 34.402064 -3.020363
2011-07-18 07:20:07 51°16.271 2°54.281 17.23 4.458639 34.402064 -3.020363
2011-07-18 07:20:12 51°16.271 2°54.282 17.2272 4.459676 34.411709 -3.020363
2011-07-18 07:20:17 51°16.272 2°54.282 17.2278 4.458328 34.400059 -3.020363
2011-07-18 07:20:23 51°16.272 2°54.283 17.2284 4.460298 34.418454 -3.020363
2011-07-18 07:20:27 51°16.272 2°54.283 17.2246 4.460298 34.419138 -3.020363
2011-07-18 07:20:32 51°16.272 2°54.284 17.2265 4.460195 34.41961 -3.020363
2011-07-18 07:20:36 51°16.272 2°54.284 17.2271 4.460195 34.41961 -3.020363
2011-07-18 07:20:42 51°16.272 2°54.284 17.2239 4.459676 34.415128 -3.020363
2011-07-18 07:20:48 51°16.272 2°54.285 17.2233 4.459157 34.412015 -3.020363
2011-07-18 07:20:52 51°16.272 2°54.286 17.2221 4.457602 34.398571 -3.020363
2011-07-18 07:20:57 51°16.272 2°54.286 17.2242 4.459365 34.414491 -3.020363
2011-07-18 07:21:02 51°16.272 2°54.287 17.2244 4.45978 34.418761 -3.020363
2011-07-18 07:21:08 51°16.273 2°54.287 17.2244 4.45978 34.418761 -3.020363
2011-07-18 07:21:12 51°16.273 2°54.288 17.223 4.458431 34.407109 -3.020363
2011-07-18 07:21:16 51°16.273 2°54.288 17.2239 4.458743 34.410481 -3.020363
2011-07-18 07:21:22 51°16.274 2°54.289 17.223 4.459158 34.415435 -3.020363
2011-07-18 07:21:28 51°16.274 2°54.29 17.2242 4.459572 34.419704 -3.020363
2011-07-18 07:21:32 51°16.274 2°54.29 17.2246 4.459469 34.418808 -3.020363
2011-07-18 07:21:36 51°16.274 2°54.29 17.2227 4.459469 34.418808 -3.020363
2011-07-18 07:21:42 51°16.274 2°54.291 17.2227 4.459261 34.416331 -3.020363
2011-07-18 07:21:47 51°16.274 2°54.291 17.2211 4.459987 34.42329 -3.020363
2011-07-18 07:21:52 51°16.274 2°54.291 17.2189 4.459884 34.422394 -3.020363
2011-07-18 07:21:57 51°16.274 2°54.291 17.2199 4.459261 34.417015 -3.020363
2011-07-18 07:22:03 51°16.274 2°54.292 17.2186 4.459054 34.415223 -3.020363
2011-07-18 07:22:07 51°16.274 2°54.292 17.2191 4.459054 34.415223 -3.020363
2011-07-18 07:22:12 51°16.274 2°54.292 17.2207 4.45978 34.421497 -3.020363
2011-07-18 07:22:16 51°16.275 2°54.292 17.2192 4.459572 34.420389 -3.020363
2011-07-18 07:22:22 51°16.275 2°54.292 17.2221 4.457809 34.405834 -3.020363
2011-07-18 07:22:28 51°16.275 2°54.292 17.2216 4.459987 34.426027 -3.020363
2011-07-18 07:22:32 51°16.275 2°54.292 17.2232 4.459573 34.422441 -3.020363
2011-07-18 07:22:36 51°16.275 2°54.293 17.2207 4.459573 34.422441 -3.020363
2011-07-18 07:22:42 51°16.275 2°54.292 17.2174 4.459884 34.425815 -3.020363
2011-07-18 07:22:48 51°16.275 2°54.293 17.2195 4.458535 34.413477 -3.020363
2011-07-18 07:22:52 51°16.275 2°54.293 17.2213 4.458535 34.414161 -3.020363
2011-07-18 07:22:57 51°16.276 2°54.293 17.2201 4.458328 34.411684 -3.020363
2011-07-18 07:23:03 51°16.276 2°54.293 17.2178 4.458535 34.412793 -3.020363
2011-07-18 07:23:08 51°16.278 2°54.293 17.2182 4.458535 34.412793 -3.020363
2011-07-18 07:23:12 51°16.279 2°54.292 17.2178 4.458743 34.414586 -3.020363
2011-07-18 07:23:16 51°16.28 2°54.291 17.216 4.458224 34.410788 -3.020363
2011-07-18 07:23:22 51°16.282 2°54.29 17.2178 4.458846 34.41685 -3.020363
2011-07-18 07:23:28 51°16.286 2°54.289 17.2173 4.458743 34.415954 -3.020363
2011-07-18 07:23:32 51°16.288 2°54.287 17.2186 4.458639 34.415057 -3.020363
2011-07-18 07:23:36 51°16.29 2°54.285 17.2177 4.458639 34.415057 -3.020363
2011-07-18 07:23:42 51°16.295 2°54.28 17.2198 4.458432 34.413949 -3.020363
2011-07-18 07:23:47 51°16.299 2°54.276 17.218 4.458639 34.416426 -3.020363
2011-07-18 07:23:52 51°16.304 2°54.271 17.216 4.45895 34.4198 -3.020363
2011-07-18 07:23:56 51°16.307 2°54.266 17.2194 4.458535 34.416214 -3.020363
2011-07-18 07:24:02 51°16.313 2°54.258 17.2155 4.458535 34.416898 -3.020363
2011-07-18 07:24:07 51°16.318 2°54.25 17.2172 4.458535 34.416898 -3.020363
2011-07-18 07:24:12 51°16.324 2°54.242 17.2164 4.458639 34.417794 -3.020363
2011-07-18 07:24:16 51°16.328 2°54.234 17.218 4.457705 34.409726 -3.020363
2011-07-18 07:24:22 51°16.334 2°54.223 17.2179 4.458535 34.416898 -3.020363
2011-07-18 07:24:27 51°16.34 2°54.212 17.218 4.458432 34.416686 -3.020363
2011-07-18 07:24:32 51°16.345 2°54.2 17.2173 4.457809 34.410622 -3.020363
2011-07-18 07:24:36 51°16.35 2°54.19 17.2176 4.457809 34.410622 -3.020363
2011-07-18 07:24:42 51°16.356 2°54.173 17.2176 4.457809 34.411306 -3.020363
2011-07-18 07:24:48 51°16.363 2°54.155 17.2154 4.457602 34.409513 -3.020363
2011-07-18 07:24:52 51°16.368 2°54.142 17.2176 4.457809 34.411306 -3.020363
2011-07-18 07:24:57 51°16.373 2°54.126 17.2168 4.457498 34.408617 -3.020363
2011-07-18 07:25:03 51°16.38 2°54.104 17.216 4.457913 34.412203 -3.020363
2011-07-18 07:25:08 51°16.385 2°54.084 17.2163 4.457913 34.412203 -3.020363
2011-07-18 07:25:12 51°16.389 2°54.068 17.2164 4.457913 34.412203 -3.020363
2011-07-18 07:25:16 51°16.393 2°54.052 17.2156 4.457913 34.412203 -3.020363
2011-07-18 07:25:22 51°16.399 2°54.028 17.2222 4.458017 34.413099 -3.020363
2011-07-18 07:25:28 51°16.406 2°54.003 17.2196 4.458328 34.416473 -3.020363
2011-07-18 07:25:32 51°16.41 2°53.985 17.217 4.457913 34.412887 -3.020363
2011-07-18 07:25:37 51°16.416 2°53.963 17.2207 4.457913 34.412887 -3.020363
2011-07-18 07:25:42 51°16.423 2°53.941 17.2235 4.458743 34.419375 -3.020363
2011-07-18 07:25:47 51°16.429 2°53.918 17.2254 4.458535 34.417582 -3.020363
2011-07-18 07:25:52 51°16.436 2°53.895 17.225 4.45895 34.421168 -3.020363
2011-07-18 07:25:56 51°16.441 2°53.877 17.2264 4.458743 34.418691 -3.020363
2011-07-18 07:26:02 51°16.45 2°53.849 17.2279 4.458846 34.418903 -3.020363
2011-07-18 07:26:08 51°16.458 2°53.82 17.2307 4.458846 34.418903 -3.020363
2011-07-18 07:26:12 51°16.465 2°53.802 17.2313 4.459261 34.421805 -3.020363
2011-07-18 07:26:16 51°16.471 2°53.784 17.2329 4.459676 34.424707 -3.020363
2011-07-18 07:26:22 51°16.481 2°53.757 17.237 4.460091 34.426924 -3.020363
2011-07-18 07:26:28 51°16.491 2°53.729 17.237 4.461855 34.440111 -3.020363
2011-07-18 07:26:32 51°16.498 2°53.711 17.2395 4.461958 34.440323 -3.020363
2011-07-18 07:26:37 51°16.506 2°53.688 17.2378 4.461958 34.440323 -3.020363
2011-07-18 07:26:42 51°16.515 2°53.665 17.2393 4.462373 34.441855 -3.020363
2011-07-18 07:26:48 51°16.526 2°53.64 17.2413 4.462269 34.439589 -3.020363
2011-07-18 07:26:52 51°16.534 2°53.622 17.2403 4.461336 34.430153 -3.020363
2011-07-18 07:26:56 51°16.542 2°53.605 17.2404 4.462892 34.441545 -3.020363
2011-07-18 07:27:02 51°16.554 2°53.58 17.2388 4.463099 34.441284 -3.020363
2011-07-18 07:27:08 51°16.566 2°53.554 17.2387 4.463099 34.441284 -3.020363
2011-07-18 07:27:12 51°16.574 2°53.538 17.2371 4.463307 34.441708 -3.020363
2011-07-18 07:27:16 51°16.582 2°53.522 17.2397 4.462995 34.438335 -3.020363
2011-07-18 07:27:22 51°16.594 2°53.498 17.2382 4.463099 34.438547 -3.020363
2011-07-18 07:27:28 51°16.608 2°53.474 17.2361 4.464136 34.446825 -3.020363
2011-07-18 07:27:32 51°16.616 2°53.458 17.2347 4.464655 34.451306 -3.020363
2011-07-18 07:27:36 51°16.624 2°53.441 17.2305 4.464655 34.451306 -3.020363
2011-07-18 07:27:42 51°16.638 2°53.417 17.2285 4.464759 34.452203 -3.020363
2011-07-18 07:27:48 51°16.652 2°53.393 17.2282 4.464863 34.453099 -3.020363
2011-07-18 07:27:52 51°16.662 2°53.377 17.2248 4.465485 34.458476 -3.020363
2011-07-18 07:27:56 51°16.671 2°53.361 17.2245 4.464966 34.45468 -3.020363
2011-07-18 07:28:02 51°16.686 2°53.339 17.2195 4.465692 34.461638 -3.020363
2011-07-18 07:28:07 51°16.698 2°53.319 17.2191 4.465692 34.461638 -3.020363
2011-07-18 07:28:12 51°16.711 2°53.301 17.2171 4.466522 34.470179 -3.020363
2011-07-18 07:28:16 51°16.722 2°53.287 17.2153 4.465796 34.465959 -3.020363
2011-07-18 07:28:22 51°16.738 2°53.267 17.2125 4.466419 34.472708 -3.020363
2011-07-18 07:28:28 51°16.755 2°53.246 17.2086 4.467663 34.485522 -3.020363
2011-07-18 07:28:32 51°16.766 2°53.233 17.1995 4.468493 34.494752 -3.020363
2011-07-18 07:28:36 51°16.777 2°53.22 17.1983 4.468493 34.494752 -3.020363
2011-07-18 07:28:42 51°16.794 2°53.202 17.1932 4.467352 34.486259 -3.020363
2011-07-18 07:28:48 51°16.812 2°53.183 17.1922 4.467871 34.4928 -3.020363
2011-07-18 07:28:52 51°16.823 2°53.171 17.1866 4.466937 34.486786 -3.020363
2011-07-18 07:28:56 51°16.835 2°53.16 17.1788 4.467664 34.495807 -3.020363
2011-07-18 07:29:02 51°16.852 2°53.142 17.182 4.467664 34.49855 -3.020363
2011-07-18 07:29:08 51°16.869 2°53.124 17.1796 4.467664 34.49855 -3.020363
2011-07-18 07:29:12 51°16.88 2°53.112 17.174 4.470257 34.525781 -3.020363
2011-07-18 07:29:16 51°16.892 2°53.101 17.172 4.469531 34.522933 -3.020363
2011-07-18 07:29:22 51°16.908 2°53.082 17.1718 4.470568 34.534654 -3.020363
2011-07-18 07:29:28 51°16.924 2°53.063 17.1692 4.470776 34.541945 -3.020363
2011-07-18 07:29:32 51°16.935 2°53.05 17.1681 4.47005 34.539099 -3.020363
2011-07-18 07:29:37 51°16.947 2°53.033 17.1648 4.47005 34.539099 -3.020363
2011-07-18 07:29:42 51°16.961 2°53.016 17.1628 4.470672 34.546547 -3.020363
2011-07-18 07:29:48 51°16.976 2°52.995 17.1617 4.469531 34.540797 -3.020363
2011-07-18 07:29:52 51°16.986 2°52.98 17.1573 4.468494 34.533882 -3.020363
2011-07-18 07:29:56 51°16.996 2°52.966 17.1561 4.468494 34.535944 -3.020363
2011-07-18 07:30:02 51°17.012 2°52.944 17.1567 4.468805 34.541388 -3.020363
2011-07-18 07:30:08 51°17.028 2°52.923 17.1541 4.468805 34.541388 -3.020363
2011-07-18 07:30:12 51°17.038 2°52.908 17.1508 4.468494 34.540757 -3.020363
2011-07-18 07:30:16 51°17.049 2°52.894 17.1497 4.468805 34.546202 -3.020363
2011-07-18 07:30:22 51°17.064 2°52.872 17.1526 4.468909 34.548476 -3.020363
2011-07-18 07:30:27 51°17.077 2°52.853 17.1472 4.468702 34.548744 -3.020363
2011-07-18 07:30:32 51°17.091 2°52.835 17.1454 4.468183 34.546317 -3.020363
2011-07-18 07:30:36 51°17.101 2°52.82 17.1433 4.468183 34.546317 -3.020363
2011-07-18 07:30:42 51°17.117 2°52.799 17.1425 4.469947 34.562962 -3.020363
2011-07-18 07:30:48 51°17.133 2°52.778 17.1414 4.470984 34.57401 -3.020363
2011-07-18 07:30:52 51°17.143 2°52.763 17.1405 4.471191 34.577873 -3.020363
2011-07-18 07:30:56 51°17.153 2°52.748 17.1349 4.470673 34.574758 -3.020363
2011-07-18 07:31:02 51°17.168 2°52.726 17.1338 4.470984 34.57952 -3.020363
2011-07-18 07:31:08 51°17.183 2°52.704 17.1362 4.470984 34.57952 -3.020363
2011-07-18 07:31:12 51°17.193 2°52.69 17.1368 4.470984 34.580898 -3.020363
2011-07-18 07:31:16 51°17.204 2°52.675 17.1326 4.466731 34.546128 -3.020363
2011-07-18 07:31:22 51°17.219 2°52.655 17.1332 4.470569 34.580748 -3.020363
2011-07-18 07:31:28 51°17.236 2°52.635 17.1342 4.470362 34.580329 -3.020363
2011-07-18 07:31:32 51°17.247 2°52.623 17.1316 4.470258 34.582187 -3.020363
2011-07-18 07:31:36 51°17.258 2°52.609 17.1263 4.470258 34.582187 -3.020363
2011-07-18 07:31:42 51°17.275 2°52.591 17.127 4.470154 34.582666 -3.020363
2011-07-18 07:31:48 51°17.292 2°52.572 17.1263 4.470051 34.581768 -3.020363
2011-07-18 07:31:52 51°17.304 2°52.561 17.1303 4.469843 34.581349 -3.020363
2011-07-18 07:31:56 51°17.315 2°52.55 17.1238 4.469739 34.581828 -3.020363
2011-07-18 07:32:03 51°17.336 2°52.53 17.1238 4.469428 34.579821 -3.020363
2011-07-18 07:32:08 51°17.351 2°52.517 17.1247 4.469428 34.579821 -3.020363
2011-07-18 07:32:12 51°17.363 2°52.505 17.1216 4.469532 34.582098 -3.020363
2011-07-18 07:32:16 51°17.375 2°52.495 17.1192 4.46891 34.578084 -3.020363
2011-07-18 07:32:22 51°17.393 2°52.478 17.1181 4.469325 34.582369 -3.020363
2011-07-18 07:32:28 51°17.412 2°52.463 17.1168 4.468495 34.575867 -3.020363
2011-07-18 07:32:32 51°17.424 2°52.452 17.1161 4.46891 34.580841 -3.020363
2011-07-18 07:32:36 51°17.436 2°52.441 17.1144 4.46891 34.580841 -3.020363
2011-07-18 07:32:42 51°17.454 2°52.426 17.1151 4.469013 34.583119 -3.020363
2011-07-18 07:32:48 51°17.473 2°52.411 17.1161 4.46891 34.582909 -3.020363
2011-07-18 07:32:52 51°17.485 2°52.402 17.112 4.468702 34.58318 -3.020363
2011-07-18 07:32:56 51°17.498 2°52.394 17.1133 4.469013 34.587256 -3.020363
2011-07-18 07:33:02 51°17.517 2°52.381 17.1097 4.467872 34.578056 -3.020363
2011-07-18 07:33:08 51°17.537 2°52.371 17.1088 4.467872 34.578056 -3.020363
2011-07-18 07:33:12 51°17.55 2°52.364 17.1126 4.467872 34.579435 -3.020363
2011-07-18 07:33:16 51°17.563 2°52.357 17.1087 4.46808 34.581923 -3.020363
2011-07-18 07:33:22 51°17.582 2°52.348 17.1135 4.468287 34.58441 -3.020363
2011-07-18 07:33:28 51°17.602 2°52.338 17.1161 4.467354 34.577008 -3.020363
2011-07-18 07:33:32 51°17.615 2°52.333 17.1177 4.467458 34.579286 -3.020363
2011-07-18 07:33:38 51°17.635 2°52.324 17.1181 4.467458 34.579286 -3.020363
2011-07-18 07:33:42 51°17.648 2°52.318 17.1176 4.46808 34.58606 -3.020363
2011-07-18 07:33:48 51°17.668 2°52.309 17.1208 4.46725 34.578867 -3.020363
2011-07-18 07:33:52 51°17.681 2°52.302 17.1247 4.467146 34.578658 -3.020363
2011-07-18 07:33:56 51°17.694 2°52.295 17.1299 4.466213 34.569876 -3.020363
2011-07-18 07:34:02 51°17.712 2°52.284 17.1318 4.465902 34.5658 -3.020363
2011-07-18 07:34:08 51°17.732 2°52.273 17.1341 4.465902 34.5658 -3.020363
2011-07-18 07:34:12 51°17.744 2°52.264 17.1391 4.466317 34.568018 -3.020363
2011-07-18 07:34:17 51°17.76 2°52.254 17.1418 4.465694 34.561245 -3.020363
2011-07-18 07:34:22 51°17.776 2°52.243 17.1465 4.465902 34.562354 -3.020363
2011-07-18 07:34:28 51°17.794 2°52.23 17.1514 4.465487 34.556002 -3.020363
2011-07-18 07:34:32 51°17.807 2°52.221 17.1574 4.464345 34.54336 -3.020363
2011-07-18 07:34:36 51°17.819 2°52.213 17.1634 4.464345 34.54336 -3.020363
2011-07-18 07:34:42 51°17.837 2°52.198 17.1656 4.465694 34.552289 -3.020363
2011-07-18 07:34:48 51°17.855 2°52.184 17.1714 4.46476 34.541446 -3.020363
2011-07-18 07:34:52 51°17.867 2°52.173 17.1776 4.465694 34.546092 -3.020363
2011-07-18 07:34:56 51°17.879 2°52.163 17.1833 4.464968 34.53636 -3.020363
2011-07-18 07:35:02 51°17.896 2°52.146 17.1888 4.464449 34.527052 -3.020363
2011-07-18 07:35:07 51°17.911 2°52.132 17.1916 4.464449 34.527052 -3.020363
2011-07-18 07:35:12 51°17.925 2°52.118 17.1968 4.46476 34.524932 -3.020363
2011-07-18 07:35:16 51°17.937 2°52.105 17.2003 4.464552 34.518323 -3.020363
2011-07-18 07:35:22 51°17.954 2°52.087 17.2046 4.464864 34.516205 -3.020363
2011-07-18 07:35:28 51°17.971 2°52.069 17.2091 4.46393 34.503314 -3.020363
2011-07-18 07:35:32 51°17.982 2°52.056 17.2123 4.464034 34.499404 -3.020363
2011-07-18 07:35:36 51°17.993 2°52.043 17.2177 4.464034 34.499404 -3.020363
2011-07-18 07:35:43 51°18.012 2°52.021 17.2211 4.463515 34.49011 -3.020363
2011-07-18 07:35:48 51°18.025 2°52.005 17.2258 4.463515 34.485306 -3.020363
2011-07-18 07:35:52 51°18.035 2°51.992 17.2288 4.463826 34.483195 -3.020363
2011-07-18 07:35:56 51°18.045 2°51.978 17.233 4.463411 34.476176 -3.020363
2011-07-18 07:36:02 51°18.059 2°51.956 17.2368 4.463618 34.472484 -3.020363
2011-07-18 07:36:08 51°18.074 2°51.934 17.2388 4.463618 34.472484 -3.020363
2011-07-18 07:36:12 51°18.084 2°51.919 17.2404 4.462892 34.462092 -3.020363
2011-07-18 07:36:16 51°18.093 2°51.904 17.2431 4.462996 34.458877 -3.020363
2011-07-18 07:36:22 51°18.107 2°51.881 17.2455 4.462996 34.455452 -3.020363
2011-07-18 07:36:28 51°18.121 2°51.857 17.2476 4.462788 34.450234 -3.020363
2011-07-18 07:36:32 51°18.13 2°51.841 17.2473 4.463722 34.454194 -3.020363
2011-07-18 07:36:36 51°18.14 2°51.825 17.2486 4.463722 34.454194 -3.020363
2011-07-18 07:36:42 51°18.154 2°51.802 17.2496 4.464033 34.453459 -3.020363
2011-07-18 07:36:48 51°18.169 2°51.778 17.2495 4.463307 34.444446 -3.020363
2011-07-18 07:36:52 51°18.179 2°51.762 17.2509 4.463514 34.442816 -3.020363
2011-07-18 07:36:57 51°18.191 2°51.743 17.2519 4.464551 34.449041 -3.020363
2011-07-18 07:37:03 51°18.206 2°51.719 17.2509 4.464448 34.446092 -3.020363
2011-07-18 07:37:08 51°18.218 2°51.7 17.2504 4.464448 34.446092 -3.020363
2011-07-18 07:37:12 51°18.228 2°51.684 17.2527 4.464136 34.442035 -3.020363
2011-07-18 07:37:16 51°18.238 2°51.668 17.2501 4.464551 34.444251 -3.020363
2011-07-18 07:37:22 51°18.252 2°51.645 17.2515 4.464655 34.444463 -3.020363
2011-07-18 07:37:27 51°18.264 2°51.625 17.2493 4.465485 34.450263 -3.020363
2011-07-18 07:37:32 51°18.276 2°51.605 17.248 4.464759 34.44399 -3.020363
2011-07-18 07:37:36 51°18.286 2°51.589 17.2507 4.464759 34.44399 -3.020363
2011-07-18 07:37:42 51°18.3 2°51.565 17.2451 4.465485 34.449578 -3.020363
2011-07-18 07:37:47 51°18.312 2°51.545 17.2441 4.465485 34.449578 -3.020363
2011-07-18 07:37:52 51°18.324 2°51.525 17.2442 4.465485 34.449578 -3.020363
2011-07-18 07:37:56 51°18.333 2°51.509 17.2421 4.465381 34.447998 -3.020363
2011-07-18 07:38:02 51°18.347 2°51.485 17.2405 4.4659 34.453847 -3.020363
2011-07-18 07:38:07 51°18.359 2°51.465 17.2388 4.4659 34.453847 -3.020363
2011-07-18 07:38:12 51°18.371 2°51.445 17.2376 4.467144 34.4646 -3.020363
2011-07-18 07:38:16 51°18.381 2°51.429 17.2369 4.466937 34.463492 -3.020363
2011-07-18 07:38:22 51°18.395 2°51.404 17.235 4.466522 34.461277 -3.020363
2011-07-18 07:38:27 51°18.407 2°51.384 17.2339 4.46673 34.464439 -3.020363
2011-07-18 07:38:32 51°18.418 2°51.364 17.2335 4.466418 34.462435 -3.020363
2011-07-18 07:38:36 51°18.427 2°51.347 17.2305 4.466418 34.462435 -3.020363
2011-07-18 07:38:42 51°18.44 2°51.322 17.2286 4.467145 34.470078 -3.020363
2011-07-18 07:38:48 51°18.453 2°51.297 17.2291 4.466315 34.464277 -3.020363
2011-07-18 07:38:52 51°18.462 2°51.281 17.2278 4.467767 34.478196 -3.020363
2011-07-18 07:38:57 51°18.473 2°51.26 17.2273 4.467663 34.479355 -3.020363
2011-07-18 07:39:02 51°18.484 2°51.239 17.223 4.466833 34.472868 -3.020363
2011-07-18 07:39:08 51°18.495 2°51.212 17.2221 4.466833 34.472868 -3.020363
2011-07-18 07:39:13 51°18.503 2°51.192 17.2219 4.467145 34.476928 -3.020363
2011-07-18 07:39:18 51°18.511 2°51.171 17.2235 4.467663 34.482781 -3.020363
2011-07-18 07:39:24 51°18.518 2°51.149 17.2225 4.46839 34.490427 -3.020363
2011-07-18 07:39:28 51°18.523 2°51.134 17.2194 4.468597 34.492906 -3.020363
2011-07-18 07:39:33 51°18.528 2°51.117 17.2193 4.468493 34.49338 -3.020363
2011-07-18 07:39:38 51°18.533 2°51.101 17.2167 4.468493 34.49338 -3.020363
2011-07-18 07:39:43 51°18.537 2°51.086 17.2142 4.468182 34.492747 -3.020363
2011-07-18 07:39:48 51°18.54 2°51.073 17.2151 4.469219 34.503086 -3.020363
2011-07-18 07:39:52 51°18.542 2°51.063 17.2127 4.468805 34.500185 -3.020363
2011-07-18 07:39:56 51°18.544 2°51.053 17.2149 4.46839 34.497283 -3.020363
2011-07-18 07:40:02 51°18.546 2°51.041 17.2141 4.469323 34.50604 -3.020363
2011-07-18 07:40:07 51°18.548 2°51.031 17.2114 4.469323 34.50604 -3.020363
2011-07-18 07:40:12 51°18.549 2°51.023 17.2118 4.469116 34.505619 -3.020363
2011-07-18 07:40:16 51°18.55 2°51.018 17.2114 4.469634 34.511475 -3.020363
2011-07-18 07:40:22 51°18.553 2°51.01 17.2109 4.469116 34.507677 -3.020363
2011-07-18 07:40:27 51°18.555 2°51.007 17.211 4.470153 34.518019 -3.020363
2011-07-18 07:40:32 51°18.557 2°51.003 17.2075 4.469427 34.51174 -3.020363
2011-07-18 07:40:36 51°18.558 2°51 17.2066 4.469427 34.51174 -3.020363
2011-07-18 07:40:42 51°18.56 2°50.996 17.2059 4.470153 34.518705 -3.020363
2011-07-18 07:40:48 51°18.561 2°50.992 17.2043 4.470257 34.520288 -3.020363
2011-07-18 07:40:52 51°18.562 2°50.991 17.2042 4.470049 34.519181 -3.020363
2011-07-18 07:40:56 51°18.563 2°50.989 17.2065 4.469635 34.516279 -3.020363
2011-07-18 07:41:02 51°18.564 2°50.988 17.2071 4.469012 34.511583 -3.020363
2011-07-18 07:41:08 51°18.564 2°50.988 17.2046 4.469012 34.511583 -3.020363
2011-07-18 07:41:12 51°18.565 2°50.988 17.2065 4.469842 34.520132 -3.020363
2011-07-18 07:41:16 51°18.566 2°50.988 17.2058 4.469012 34.513642 -3.020363
2011-07-18 07:41:22 51°18.567 2°50.988 17.2043 4.468805 34.513221 -3.020363
2011-07-18 07:41:28 51°18.568 2°50.988 17.2038 4.468909 34.514118 -3.020363
2011-07-18 07:41:32 51°18.568 2°50.988 17.2042 4.469116 34.515912 -3.020363
2011-07-18 07:41:36 51°18.569 2°50.988 17.2031 4.469116 34.515912 -3.020363
2011-07-18 07:41:42 51°18.569 2°50.989 17.2026 4.469427 34.51929 -3.020363
2011-07-18 07:41:48 51°18.57 2°50.99 17.2003 4.46922 34.517496 -3.020363
2011-07-18 07:41:53 51°18.571 2°50.99 17.1977 4.470465 34.528262 -3.020363
2011-07-18 07:41:59 51°18.572 2°50.99 17.1989 4.468597 34.512799 -3.020363
2011-07-18 07:42:04 51°18.572 2°50.991 17.1988 4.470153 34.526943 -3.020363
2011-07-18 07:42:10 51°18.573 2°50.991 17.1989 4.470153 34.526943 -3.020363
2011-07-18 07:42:16 51°18.573 2°50.992 17.1953 4.47005 34.526733 -3.020363
2011-07-18 07:42:20 51°18.574 2°50.992 17.1967 4.470153 34.528317 -3.020363
2011-07-18 07:42:24 51°18.574 2°50.992 17.1972 4.470361 34.530111 -3.020363
2011-07-18 07:42:29 51°18.575 2°50.992 17.1954 4.470361 34.530798 -3.020363
2011-07-18 07:42:34 51°18.575 2°50.992 17.1949 4.471087 34.538453 -3.020363
2011-07-18 07:42:39 51°18.575 2°50.993 17.195 4.471087 34.538453 -3.020363
2011-07-18 07:42:44 51°18.576 2°50.993 17.1956 4.470568 34.534654 -3.020363
2011-07-18 07:42:48 51°18.576 2°50.993 17.194 4.470257 34.532648 -3.020363
2011-07-18 07:42:53 51°18.576 2°50.993 17.1943 4.470361 34.534233 -3.020363
2011-07-18 07:42:58 51°18.577 2°50.993 17.1959 4.469531 34.527741 -3.020363
2011-07-18 07:43:03 51°18.577 2°50.994 17.1951 4.47005 34.532915 -3.020363
2011-07-18 07:43:08 51°18.578 2°50.994 17.1922 4.47005 34.532915 -3.020363
2011-07-18 07:43:12 51°18.578 2°50.994 17.1918 4.470568 34.537402 -3.020363
2011-07-18 07:43:16 51°18.578 2°50.995 17.1949 4.470153 34.534499 -3.020363
2011-07-18 07:43:22 51°18.579 2°50.995 17.1922 4.469946 34.533391 -3.020363
2011-07-18 07:43:28 51°18.579 2°50.996 17.1925 4.470568 34.538089 -3.020363
2011-07-18 07:43:32 51°18.579 2°50.996 17.1924 4.47005 34.533602 -3.020363
2011-07-18 07:43:36 51°18.58 2°50.996 17.193 4.47005 34.533602 -3.020363
2011-07-18 07:43:42 51°18.579 2°50.997 17.1943 4.470257 34.535397 -3.020363
2011-07-18 07:43:48 51°18.58 2°50.998 17.1912 4.469842 34.533181 -3.020363
2011-07-18 07:43:52 51°18.581 2°50.998 17.1914 4.470672 34.540361 -3.020363
2011-07-18 07:43:56 51°18.581 2°50.999 17.1924 4.470465 34.538566 -3.020363
2011-07-18 07:44:02 51°18.581 2°50.999 17.1891 4.470672 34.541048 -3.020363
2011-07-18 07:44:07 51°18.581 2°50.999 17.1883 4.470672 34.541048 -3.020363
2011-07-18 07:44:12 51°18.581 2°50.999 17.1903 4.470776 34.541945 -3.020363
2011-07-18 07:44:16 51°18.582 2°51 17.1869 4.470154 34.53656 -3.020363
2011-07-18 07:44:22 51°18.582 2°51 17.1863 4.468909 34.525791 -3.020363
2011-07-18 07:44:28 51°18.582 2°51 17.1868 4.470568 34.54015 -3.020363
2011-07-18 07:44:32 51°18.582 2°51 17.1906 4.469842 34.534555 -3.020363
2011-07-18 07:44:36 51°18.582 2°51 17.1892 4.469842 34.534555 -3.020363
2011-07-18 07:44:42 51°18.582 2°51.001 17.1888 4.469946 34.536827 -3.020363
2011-07-18 07:44:48 51°18.582 2°51.001 17.1892 4.469324 34.532129 -3.020363
2011-07-18 07:44:52 51°18.583 2°51.002 17.1871 4.468701 34.526744 -3.020363
2011-07-18 07:44:56 51°18.582 2°51.002 17.1888 4.4631 34.478972 -3.020363
2011-07-18 07:45:02 51°18.583 2°51.002 17.1895 4.47088 34.546279 -3.020363
2011-07-18 07:45:08 51°18.583 2°51.003 17.1914 4.47088 34.546279 -3.020363
2011-07-18 07:45:12 51°18.583 2°51.003 17.1867 4.470361 34.541104 -3.020363
2011-07-18 07:45:16 51°18.583 2°51.004 17.1868 4.47005 34.539099 -3.020363
2011-07-18 07:45:22 51°18.583 2°51.004 17.1829 4.471191 34.548285 -3.020363
2011-07-18 07:45:28 51°18.583 2°51.004 17.1829 4.471398 34.55008 -3.020363
2011-07-18 07:45:32 51°18.583 2°51.004 17.1861 4.470672 34.543797 -3.020363
2011-07-18 07:45:36 51°18.584 2°51.005 17.185 4.470672 34.543797 -3.020363
2011-07-18 07:45:42 51°18.584 2°51.005 17.1845 4.471295 34.549182 -3.020363
2011-07-18 07:45:48 51°18.584 2°51.006 17.1861 4.469946 34.538201 -3.020363
2011-07-18 07:45:52 51°18.584 2°51.006 17.1855 4.471295 34.550557 -3.020363
2011-07-18 07:45:56 51°18.584 2°51.007 17.1868 4.469013 34.532185 -3.020363
2011-07-18 07:46:02 51°18.584 2°51.007 17.1856 4.47088 34.548342 -3.020363
2011-07-18 07:46:08 51°18.584 2°51.007 17.1888 4.47088 34.548342 -3.020363
2011-07-18 07:46:12 51°18.584 2°51.007 17.1859 4.469324 34.535565 -3.020363
2011-07-18 07:46:16 51°18.585 2°51.008 17.1875 4.46922 34.534667 -3.020363
2011-07-18 07:46:22 51°18.584 2°51.009 17.1874 4.469013 34.532872 -3.020363
2011-07-18 07:46:28 51°18.584 2°51.009 17.1856 4.469635 34.53757 -3.020363
2011-07-18 07:46:32 51°18.584 2°51.009 17.1878 4.46922 34.53398 -3.020363
2011-07-18 07:46:36 51°18.584 2°51.011 17.1853 4.46922 34.53398 -3.020363
2011-07-18 07:46:42 51°18.584 2°51.011 17.1855 4.469324 34.534191 -3.020363
2011-07-18 07:46:48 51°18.584 2°51.012 17.1861 4.470257 34.541581 -3.020363
2011-07-18 07:46:52 51°18.583 2°51.012 17.186 4.469427 34.534401 -3.020363
2011-07-18 07:46:56 51°18.584 2°51.013 17.1861 4.469531 34.535298 -3.020363
2011-07-18 07:47:02 51°18.584 2°51.013 17.1856 4.468909 34.529913 -3.020363
2011-07-18 07:47:08 51°18.584 2°51.014 17.1859 4.468909 34.529913 -3.020363
2011-07-18 07:47:12 51°18.584 2°51.014 17.1872 4.185491 32.091751 -3.020363
2011-07-18 07:47:16 51°18.584 2°51.014 17.1854 4.472954 34.565607 -3.020363
2011-07-18 07:47:22 51°18.584 2°51.015 17.1872 4.472851 34.565397 -3.020363
2011-07-18 07:47:28 51°18.584 2°51.015 17.1872 4.472747 34.5645 -3.020363
2011-07-18 07:47:32 51°18.584 2°51.016 17.1864 4.472747 34.5645 -3.020363
2011-07-18 07:47:36 51°18.584 2°51.016 17.1857 4.472747 34.5645 -3.020363
2011-07-18 07:47:42 51°18.584 2°51.017 17.1858 4.472643 34.563602 -3.020363
2011-07-18 07:47:48 51°18.585 2°51.018 17.1863 4.472643 34.562914 -3.020363
2011-07-18 07:47:52 51°18.584 2°51.018 17.1865 4.472643 34.563602 -3.020363
2011-07-18 07:47:56 51°18.585 2°51.02 17.1863 4.472747 34.563812 -3.020363
2011-07-18 07:48:02 51°18.585 2°51.021 17.1872 4.472747 34.5645 -3.020363
2011-07-18 07:48:08 51°18.585 2°51.021 17.187 4.472747 34.5645 -3.020363
2011-07-18 07:48:12 51°18.585 2°51.021 17.1857 4.472747 34.5645 -3.020363
2011-07-18 07:48:16 51°18.586 2°51.022 17.1844 4.472643 34.563602 -3.020363
2011-07-18 07:48:22 51°18.586 2°51.023 17.1847 4.472643 34.563602 -3.020363
2011-07-18 07:48:27 51°18.585 2°51.023 17.1859 4.472851 34.565397 -3.020363
2011-07-18 07:48:32 51°18.585 2°51.024 17.1855 4.472851 34.565397 -3.020363
2011-07-18 07:48:36 51°18.585 2°51.024 17.1888 4.472851 34.565397 -3.020363
2011-07-18 07:48:42 51°18.585 2°51.025 17.187 4.472954 34.565607 -3.020363
2011-07-18 07:48:48 51°18.585 2°51.025 17.186 4.472954 34.566295 -3.020363
2011-07-18 07:48:52 51°18.585 2°51.026 17.1842 4.473058 34.567193 -3.020363
2011-07-18 07:48:56 51°18.585 2°51.026 17.1837 4.472954 34.566295 -3.020363
2011-07-18 07:49:02 51°18.586 2°51.027 17.1839 4.472747 34.5645 -3.020363
2011-07-18 07:49:08 51°18.587 2°51.027 17.1853 4.472747 34.5645 -3.020363
2011-07-18 07:49:12 51°18.587 2°51.027 17.1851 4.472643 34.562914 -3.020363
2011-07-18 07:49:16 51°18.588 2°51.027 17.1827 4.472643 34.563602 -3.020363
2011-07-18 07:49:22 51°18.591 2°51.026 17.1834 4.472539 34.562704 -3.020363
2011-07-18 07:49:28 51°18.593 2°51.025 17.1844 4.472539 34.563392 -3.020363
2011-07-18 07:49:32 51°18.596 2°51.025 17.1839 4.472643 34.564978 -3.020363
2011-07-18 07:49:36 51°18.598 2°51.024 17.1843 4.472643 34.564978 -3.020363
2011-07-18 07:49:42 51°18.602 2°51.023 17.1843 4.472747 34.565876 -3.020363
2011-07-18 07:49:48 51°18.607 2°51.023 17.1846 4.472747 34.566563 -3.020363
2011-07-18 07:49:52 51°18.61 2°51.023 17.1862 4.472851 34.567461 -3.020363
2011-07-18 07:49:56 51°18.613 2°51.023 17.1872 4.472954 34.568359 -3.020363
2011-07-18 07:50:02 51°18.619 2°51.026 17.1857 4.472954 34.568359 -3.020363
2011-07-18 07:50:08 51°18.624 2°51.029 17.1873 4.472954 34.568359 -3.020363
2011-07-18 07:50:12 51°18.628 2°51.031 17.1863 4.473058 34.568569 -3.020363
2011-07-18 07:50:16 51°18.631 2°51.033 17.1898 4.472332 34.562972 -3.020363
2011-07-18 07:50:22 51°18.636 2°51.038 17.1877 4.473058 34.568569 -3.020363
2011-07-18 07:50:28 51°18.641 2°51.044 17.1864 4.473058 34.567881 -3.020363
2011-07-18 07:50:32 51°18.643 2°51.049 17.1867 4.473162 34.568091 -3.020363
2011-07-18 07:50:36 51°18.645 2°51.054 17.1882 4.473162 34.568091 -3.020363
2011-07-18 07:50:42 51°18.648 2°51.062 17.1853 4.473162 34.567403 -3.020363
2011-07-18 07:50:47 51°18.65 2°51.069 17.1855 4.473266 34.567613 -3.020363
2011-07-18 07:50:52 51°18.65 2°51.076 17.1873 4.473266 34.566925 -3.020363
2011-07-18 07:50:56 51°18.651 2°51.082 17.1905 4.473369 34.567822 -3.020363
2011-07-18 07:51:02 51°18.65 2°51.09 17.1875 4.473369 34.567822 -3.020363
2011-07-18 07:51:08 51°18.649 2°51.098 17.1884 4.473369 34.567822 -3.020363
2011-07-18 07:51:12 51°18.648 2°51.104 17.1864 4.473473 34.568032 -3.020363
2011-07-18 07:51:16 51°18.646 2°51.11 17.1892 4.473473 34.568032 -3.020363
2011-07-18 07:51:22 51°18.644 2°51.117 17.1875 4.473473 34.568032 -3.020363
2011-07-18 07:51:28 51°18.64 2°51.125 17.1886 4.473577 34.568242 -3.020363
2011-07-18 07:51:32 51°18.638 2°51.13 17.1881 4.47368 34.568452 -3.020363
2011-07-18 07:51:36 51°18.634 2°51.135 17.1868 4.47368 34.568452 -3.020363
2011-07-18 07:51:42 51°18.629 2°51.143 17.1979 4.473577 34.566866 -3.020363
2011-07-18 07:51:48 51°18.623 2°51.149 17.1889 4.473784 34.568662 -3.020363
2011-07-18 07:51:52 51°18.618 2°51.154 17.1912 4.473784 34.567974 -3.020363
2011-07-18 07:51:56 51°18.613 2°51.158 17.1924 4.473888 34.568871 -3.020363
2011-07-18 07:52:02 51°18.605 2°51.164 17.1884 4.473888 34.569559 -3.020363
2011-07-18 07:52:08 51°18.595 2°51.171 17.1881 4.473888 34.569559 -3.020363
2011-07-18 07:52:12 51°18.588 2°51.175 17.1896 4.473888 34.568871 -3.020363
2011-07-18 07:52:16 51°18.581 2°51.182 17.1879 4.47368 34.566388 -3.020363
2011-07-18 07:52:23 51°18.566 2°51.192 17.1916 4.473265 34.562111 -3.020363
2011-07-18 07:52:28 51°18.555 2°51.199 17.1896 4.473058 34.559628 -3.020363
2011-07-18 07:52:32 51°18.546 2°51.208 17.1918 4.473265 34.560735 -3.020363
2011-07-18 07:52:36 51°18.537 2°51.214 17.1902 4.473265 34.560735 -3.020363
2011-07-18 07:52:42 51°18.523 2°51.227 17.1923 4.472851 34.557833 -3.020363
2011-07-18 07:52:48 51°18.508 2°51.239 17.1942 4.473058 34.560315 -3.020363
2011-07-18 07:52:52 51°18.498 2°51.249 17.1975 4.472539 34.555828 -3.020363
2011-07-18 07:52:56 51°18.487 2°51.258 17.1928 4.473058 34.560315 -3.020363
2011-07-18 07:53:02 51°18.472 2°51.273 17.1978 4.472643 34.556725 -3.020363
2011-07-18 07:53:08 51°18.454 2°51.287 17.1967 4.472643 34.556725 -3.020363
2011-07-18 07:53:12 51°18.443 2°51.299 17.2011 4.472436 34.55493 -3.020363
2011-07-18 07:53:16 51°18.432 2°51.308 17.1977 4.472747 34.557623 -3.020363
2011-07-18 07:53:22 51°18.416 2°51.326 17.2007 4.471709 34.547273 -3.020363
2011-07-18 07:53:28 51°18.398 2°51.341 17.2015 4.472643 34.553976 -3.020363
2011-07-18 07:53:32 51°18.388 2°51.353 17.2002 4.471709 34.545212 -3.020363
2011-07-18 07:53:37 51°18.374 2°51.37 17.2097 4.471709 34.545212 -3.020363
2011-07-18 07:53:43 51°18.355 2°51.382 17.2016 4.472228 34.548324 -3.020363
2011-07-18 07:53:48 51°18.342 2°51.398 17.2005 4.472021 34.545155 -3.020363
2011-07-18 07:53:52 51°18.33 2°51.408 17.203 4.472539 34.548267 -3.020363
2011-07-18 07:53:56 51°18.317 2°51.417 17.2035 4.472228 34.544201 -3.020363
2011-07-18 07:54:02 51°18.3 2°51.435 17.2057 4.471813 34.539238 -3.020363
2011-07-18 07:54:08 51°18.283 2°51.451 17.2101 4.471813 34.539238 -3.020363
2011-07-18 07:54:12 51°18.271 2°51.462 17.2093 4.472539 34.544832 -3.020363
2011-07-18 07:54:17 51°18.257 2°51.476 17.2089 4.472228 34.54214 -3.020363
2011-07-18 07:54:22 51°18.242 2°51.49 17.2086 4.472124 34.541243 -3.020363
2011-07-18 07:54:28 51°18.225 2°51.506 17.2113 4.472539 34.544832 -3.020363
2011-07-18 07:54:32 51°18.213 2°51.515 17.2137 4.47202 34.539659 -3.020363
2011-07-18 07:54:37 51°18.199 2°51.531 17.2244 4.47202 34.539659 -3.020363
2011-07-18 07:54:42 51°18.183 2°51.542 17.2157 4.47202 34.538285 -3.020363
2011-07-18 07:54:48 51°18.166 2°51.559 17.2268 4.471917 34.536701 -3.020363
2011-07-18 07:54:52 51°18.154 2°51.569 17.2279 4.471191 34.529048 -3.020363
2011-07-18 07:54:57 51°18.139 2°51.58 17.2278 4.471605 34.532636 -3.020363
2011-07-18 07:55:02 51°18.123 2°51.594 17.2355 4.470983 34.525194 -3.020363
2011-07-18 07:55:08 51°18.104 2°51.606 17.2255 4.470983 34.525194 -3.020363
2011-07-18 07:55:12 51°18.092 2°51.615 17.2341 4.470879 34.521552 -3.020363
2011-07-18 07:55:17 51°18.078 2°51.628 17.2271 4.469738 34.508256 -3.020363
2011-07-18 07:55:22 51°18.062 2°51.639 17.2364 4.469012 34.499235 -3.020363
2011-07-18 07:55:28 51°18.043 2°51.654 17.2345 4.467975 34.487526 -3.020363
2011-07-18 07:55:32 51°18.03 2°51.661 17.2321 4.467767 34.483677 -3.020363
2011-07-18 07:55:37 51°18.015 2°51.672 17.239 4.467767 34.483677 -3.020363
2011-07-18 07:55:42 51°17.999 2°51.684 17.2418 4.467041 34.475346 -3.020363
2011-07-18 07:55:48 51°17.98 2°51.695 17.2708 4.466211 34.466805 -3.020363
2011-07-18 07:55:52 51°17.968 2°51.705 17.2474 4.466626 34.470391 -3.020363
2011-07-18 07:55:57 51°17.952 2°51.716 17.2668 4.4659 34.462746 -3.020363
2011-07-18 07:56:02 51°17.936 2°51.726 17.2519 4.466937 34.471025 -3.020363
2011-07-18 07:56:08 51°17.918 2°51.737 17.2617 4.466937 34.471025 -3.020363
2011-07-18 07:56:12 51°17.906 2°51.748 17.2544 4.46507 34.452153 -3.020363
2011-07-18 07:56:17 51°17.89 2°51.758 17.2565 4.465692 34.454108 -3.020363
2011-07-18 07:56:22 51°17.875 2°51.769 17.259 4.463099 34.428286 -3.020363
2011-07-18 07:56:28 51°17.856 2°51.782 17.2617 4.46341 34.426188 -3.020363
2011-07-18 07:56:32 51°17.843 2°51.79 17.2784 4.463099 34.420766 -3.020363
2011-07-18 07:56:37 51°17.828 2°51.801 17.2682 4.463099 34.420766 -3.020363
2011-07-18 07:56:43 51°17.808 2°51.812 17.2712 4.463617 34.423878 -3.020363
2011-07-18 07:56:48 51°17.793 2°51.824 17.2791 4.464655 34.433519 -3.020363
2011-07-18 07:56:52 51°17.78 2°51.832 17.2723 4.465173 34.435946 -3.020363
2011-07-18 07:56:57 51°17.764 2°51.842 17.2826 4.464447 34.428309 -3.020363
2011-07-18 07:57:02 51°17.749 2°51.852 17.2723 4.464862 34.429841 -3.020363
2011-07-18 07:57:08 51°17.73 2°51.866 17.2741 4.464862 34.429841 -3.020363
2011-07-18 07:57:12 51°17.717 2°51.876 17.2742 4.463099 34.410517 -3.020363
2011-07-18 07:57:17 51°17.701 2°51.884 17.2896 4.46341 34.411154 -3.020363
2011-07-18 07:57:22 51°17.687 2°51.897 17.2797 4.462995 34.404841 -3.020363
2011-07-18 07:57:28 51°17.667 2°51.907 17.2885 4.463617 34.408847 -3.020363
2011-07-18 07:57:32 51°17.655 2°51.917 17.2747 4.462995 34.40211 -3.020363
2011-07-18 07:57:37 51°17.639 2°51.928 17.2748 4.462995 34.40211 -3.020363
2011-07-18 07:57:42 51°17.623 2°51.939 17.2823 4.464032 34.41038 -3.020363
2011-07-18 07:57:48 51°17.604 2°51.95 17.2767 4.464966 34.41912 -3.020363
2011-07-18 07:57:52 51°17.591 2°51.96 17.2809 4.462165 34.3929 -3.020363
2011-07-18 07:57:57 51°17.575 2°51.972 17.2827 4.462061 34.391322 -3.020363
2011-07-18 07:58:02 51°17.56 2°51.982 17.2887 4.461439 34.384587 -3.020363
2011-07-18 07:58:08 51°17.541 2°51.996 17.2848 4.461439 34.384587 -3.020363
2011-07-18 07:58:12 51°17.528 2°52.003 17.2981 4.462787 34.396906 -3.020363
2011-07-18 07:58:17 51°17.512 2°52.018 17.273 4.462269 34.39243 -3.020363
2011-07-18 07:58:22 51°17.495 2°52.026 17.2828 4.462476 34.392856 -3.020363
2011-07-18 07:58:28 51°17.477 2°52.041 17.2666 4.46175 34.385908 -3.020363
2011-07-18 07:58:32 51°17.464 2°52.05 17.2662 4.461231 34.378704 -3.020363
2011-07-18 07:58:37 51°17.448 2°52.059 17.2605 4.461231 34.378704 -3.020363
2011-07-18 07:58:42 51°17.433 2°52.073 17.2514 4.460298 34.370649 -3.020363
2011-07-18 07:58:47 51°17.416 2°52.083 17.2396 4.458742 34.355862 -3.020363
2011-07-18 07:58:52 51°17.401 2°52.096 17.2598 4.459468 34.364172 -3.020363
2011-07-18 07:58:56 51°17.388 2°52.105 17.2386 4.460194 34.373164 -3.020363
2011-07-18 07:59:02 51°17.369 2°52.116 17.2458 4.461024 34.383736 -3.020363
2011-07-18 07:59:08 51°17.351 2°52.132 17.2281 4.461024 34.383736 -3.020363
2011-07-18 07:59:12 51°17.338 2°52.142 17.2348 4.461335 34.390516 -3.020363
2011-07-18 07:59:16 51°17.325 2°52.149 17.2227 4.462476 34.404461 -3.020363
2011-07-18 07:59:22 51°17.307 2°52.165 17.2149 4.462061 34.40566 -3.020363
2011-07-18 07:59:28 51°17.287 2°52.176 17.2025 4.46092 34.398541 -3.020363
2011-07-18 07:59:32 51°17.274 2°52.185 17.2061 4.461128 34.405114 -3.020363
2011-07-18 07:59:36 51°17.263 2°52.195 17.187 4.461128 34.405114 -3.020363
2011-07-18 07:59:42 51°17.244 2°52.209 17.1968 4.461024 34.409685 -3.020363
2011-07-18 07:59:48 51°17.224 2°52.221 17.1785 4.462373 34.425434 -3.020363
2011-07-18 07:59:52 51°17.212 2°52.231 17.1815 4.46061 34.414304 -3.020363
2011-07-18 07:59:57 51°17.196 2°52.241 17.1883 4.461751 34.429633 -3.020363
2011-07-18 08:00:03 51°17.177 2°52.256 17.1681 4.461543 34.433315 -3.020363
2011-07-18 08:00:07 51°17.165 2°52.263 17.1537 4.461543 34.433315 -3.020363
2011-07-18 08:00:12 51°17.149 2°52.275 17.1721 4.462373 34.448017 -3.020363
2011-07-18 08:00:16 51°17.136 2°52.284 17.1573 4.4631 34.46183 -3.020363
2011-07-18 08:00:22 51°17.117 2°52.295 17.1606 4.462373 34.460349 -3.020363
2011-07-18 08:00:28 51°17.099 2°52.311 17.1617 4.461855 34.460662 -3.020363
2011-07-18 08:00:32 51°17.086 2°52.318 17.1618 4.461233 34.459393 -3.020363
2011-07-18 08:00:36 51°17.075 2°52.33 17.1515 4.461233 34.459393 -3.020363
2011-07-18 08:00:42 51°17.055 2°52.342 17.1426 4.463411 34.485781 -3.020363
2011-07-18 08:00:48 51°17.037 2°52.358 17.159 4.462063 34.477545 -3.020363
2011-07-18 08:00:52 51°17.024 2°52.364 17.1451 4.462063 34.48029 -3.020363
2011-07-18 08:00:56 51°17.013 2°52.375 17.148 4.461752 34.480343 -3.020363
2011-07-18 08:01:02 51°16.994 2°52.388 17.1331 4.462166 34.48668 -3.020363
2011-07-18 08:01:08 51°16.975 2°52.401 17.1482 4.462166 34.48668 -3.020363
2011-07-18 08:01:12 51°16.963 2°52.41 17.1512 4.461959 34.486944 -3.020363
2011-07-18 08:01:16 51°16.951 2°52.421 17.1536 4.461752 34.487895 -3.020363
2011-07-18 08:01:22 51°16.932 2°52.431 17.1635 4.461337 34.485677 -3.020363
2011-07-18 08:01:28 51°16.914 2°52.447 17.147 4.461026 34.483671 -3.020363
2011-07-18 08:01:32 51°16.901 2°52.455 17.1522 4.461441 34.490696 -3.020363
2011-07-18 08:01:36 51°16.89 2°52.467 17.1352 4.461441 34.490696 -3.020363
2011-07-18 08:01:42 51°16.87 2°52.479 17.1343 4.462167 34.499043 -3.020363
2011-07-18 08:01:48 51°16.852 2°52.493 17.1406 4.462582 34.502635 -3.020363
2011-07-18 08:01:52 51°16.84 2°52.502 17.1405 4.462374 34.501526 -3.020363
2011-07-18 08:01:56 51°16.827 2°52.514 17.144 4.461441 34.492757 -3.020363
2011-07-18 08:02:02 51°16.808 2°52.525 17.1522 4.461026 34.489165 -3.020363
2011-07-18 08:02:07 51°16.794 2°52.54 17.1467 4.461026 34.489165 -3.020363
2011-07-18 08:02:12 51°16.777 2°52.549 17.1629 4.462478 34.504486 -3.020363
2011-07-18 08:02:16 51°16.765 2°52.56 17.1338 4.463412 34.514631 -3.020363
2011-07-18 08:02:22 51°16.746 2°52.572 17.1524 4.462997 34.511726 -3.020363
2011-07-18 08:02:28 51°16.728 2°52.586 17.1371 4.4631 34.512624 -3.020363
2011-07-18 08:02:32 51°16.715 2°52.593 17.1389 4.462063 34.502268 -3.020363
2011-07-18 08:02:36 51°16.703 2°52.604 17.1485 4.462063 34.502268 -3.020363
2011-07-18 08:02:42 51°16.683 2°52.614 17.1521 4.461233 34.493709 -3.020363
2011-07-18 08:02:48 51°16.664 2°52.627 17.1401 4.461026 34.489852 -3.020363
2011-07-18 08:02:52 51°16.651 2°52.636 17.1393 4.461026 34.490539 -3.020363
2011-07-18 08:02:56 51°16.638 2°52.644 17.1357 4.461959 34.499995 -3.020363
2011-07-18 08:03:02 51°16.62 2°52.657 17.1572 4.462893 34.509453 -3.020363
2011-07-18 08:03:08 51°16.6 2°52.669 17.1366 4.462893 34.509453 -3.020363
2011-07-18 08:03:12 51°16.587 2°52.677 17.1597 4.463308 34.514421 -3.020363
2011-07-18 08:03:16 51°16.575 2°52.687 17.1453 4.463204 34.512835 -3.020363
2011-07-18 08:03:22 51°16.555 2°52.698 17.1525 4.461441 34.495505 -3.020363
2011-07-18 08:03:28 51°16.536 2°52.709 17.1407 4.462582 34.506071 -3.020363
2011-07-18 08:03:32 51°16.523 2°52.717 17.1738 4.462478 34.504486 -3.020363
2011-07-18 08:03:36 51°16.511 2°52.727 17.1487 4.462478 34.504486 -3.020363
2011-07-18 08:03:42 51°16.491 2°52.734 17.159 4.463308 34.511671 -3.020363
2011-07-18 08:03:48 51°16.472 2°52.749 17.1442 4.462893 34.507391 -3.020363
2011-07-18 08:03:52 51°16.458 2°52.755 17.1491 4.463723 34.513201 -3.020363
2011-07-18 08:03:56 51°16.446 2°52.765 17.1452 4.463723 34.513888 -3.020363
2011-07-18 08:04:02 51°16.427 2°52.776 17.1495 4.462893 34.503955 -3.020363
2011-07-18 08:04:07 51°16.411 2°52.788 17.1607 4.462893 34.503955 -3.020363
2011-07-18 08:04:12 51°16.395 2°52.796 17.1651 4.4631 34.504376 -3.020363
2011-07-18 08:04:16 51°16.383 2°52.806 17.1585 4.463515 34.507968 -3.020363
2011-07-18 08:04:22 51°16.363 2°52.815 17.1725 4.46476 34.519432 -3.020363
2011-07-18 08:04:27 51°16.348 2°52.828 17.161 4.46476 34.520807 -3.020363
2011-07-18 08:04:32 51°16.332 2°52.837 17.1671 4.466108 34.532482 -3.020363
2011-07-18 08:04:36 51°16.32 2°52.847 17.1629 4.466108 34.532482 -3.020363
2011-07-18 08:04:42 51°16.301 2°52.86 17.1856 4.465694 34.527514 -3.020363
2011-07-18 08:04:48 51°16.281 2°52.872 17.172 4.465486 34.521593 -3.020363
2011-07-18 08:04:52 51°16.269 2°52.882 17.1714 4.46476 34.513245 -3.020363
2011-07-18 08:04:56 51°16.257 2°52.89 17.1757 4.464034 34.504899 -3.020363
2011-07-18 08:05:02 51°16.237 2°52.903 17.1857 4.464864 34.511395 -3.020363
2011-07-18 08:05:08 51°16.218 2°52.916 17.2136 4.464864 34.511395 -3.020363
2011-07-18 08:05:12 51°16.206 2°52.925 17.193 4.465278 34.513612 -3.020363
2011-07-18 08:05:18 51°16.187 2°52.937 17.2093 4.464967 34.50817 -3.020363
2011-07-18 08:05:22 51°16.174 2°52.945 17.1962 4.46559 34.510809 -3.020363
2011-07-18 08:05:28 51°16.155 2°52.959 17.213 4.459573 34.457379 -3.020363
2011-07-18 08:05:32 51°16.142 2°52.967 17.2068 4.466731 34.517248 -3.020363
2011-07-18 08:05:36 51°16.13 2°52.975 17.2188 4.466731 34.517248 -3.020363
2011-07-18 08:05:42 51°16.111 2°52.987 17.213 4.464656 34.491745 -3.020363
2011-07-18 08:05:48 51°16.092 2°53.001 17.217 4.463203 34.473696 -3.020363
2011-07-18 08:05:52 51°16.08 2°53.009 17.232 4.463515 34.472958 -3.020363
2011-07-18 08:05:56 51°16.067 2°53.017 17.2196 4.463826 34.47085 -3.020363
2011-07-18 08:06:03 51°16.046 2°53.034 17.2193 4.463929 34.469005 -3.020363
2011-07-18 08:06:08 51°16.029 2°53.045 17.2311 4.463929 34.469005 -3.020363
2011-07-18 08:06:12 51°16.017 2°53.052 17.23 4.465278 34.477236 -3.020363
2011-07-18 08:06:16 51°16.004 2°53.063 17.234 4.464552 34.468903 -3.020363
2011-07-18 08:06:22 51°15.985 2°53.074 17.2346 4.465174 34.471542 -3.020363
2011-07-18 08:06:27 51°15.97 2°53.086 17.2441 4.464448 34.461839 -3.020363
2011-07-18 08:06:32 51°15.954 2°53.095 17.243 4.464966 34.464267 -3.020363
2011-07-18 08:06:36 51°15.941 2°53.104 17.2454 4.464966 34.464267 -3.020363
2011-07-18 08:06:42 51°15.922 2°53.115 17.244 4.465174 34.465375 -3.020363
2011-07-18 08:06:48 51°15.903 2°53.13 17.2576 4.463929 34.451878 -3.020363
2011-07-18 08:06:52 51°15.89 2°53.134 17.2357 4.464759 34.45631 -3.020363
2011-07-18 08:06:56 51°15.878 2°53.145 17.251 4.461958 34.428005 -3.020363
2011-07-18 08:07:02 51°15.858 2°53.156 17.2348 4.461958 34.423901 -3.020363
2011-07-18 08:07:08 51°15.84 2°53.168 17.2508 4.461958 34.423901 -3.020363
2011-07-18 08:07:12 51°15.827 2°53.176 17.2316 4.462373 34.426118 -3.020363
2011-07-18 08:07:16 51°15.814 2°53.184 17.25 4.461854 34.419586 -3.020363
2011-07-18 08:07:22 51°15.795 2°53.196 17.2285 4.461647 34.41506 -3.020363
2011-07-18 08:07:28 51°15.777 2°53.21 17.2375 4.460402 34.40226 -3.020363
2011-07-18 08:07:32 51°15.764 2°53.217 17.2391 4.460194 34.400468 -3.020363
2011-07-18 08:07:36 51°15.752 2°53.228 17.2443 4.460194 34.400468 -3.020363
2011-07-18 08:07:42 51°15.733 2°53.24 17.2357 4.460194 34.400468 -3.020363
2011-07-18 08:07:48 51°15.715 2°53.254 17.2413 4.460194 34.402518 -3.020363
2011-07-18 08:07:52 51°15.702 2°53.262 17.2472 4.460194 34.403885 -3.020363
2011-07-18 08:07:56 51°15.69 2°53.273 17.2329 4.460091 34.405722 -3.020363
2011-07-18 08:08:02 51°15.671 2°53.286 17.2313 4.460713 34.412465 -3.020363
2011-07-18 08:08:08 51°15.652 2°53.301 17.2276 4.460713 34.412465 -3.020363
2011-07-18 08:08:12 51°15.64 2°53.311 17.237 4.45895 34.396551 -3.020363
2011-07-18 08:08:16 51°15.627 2°53.318 17.2558 4.459157 34.397659 -3.020363
2011-07-18 08:08:22 51°15.61 2°53.336 17.2421 4.458431 34.391388 -3.020363
2011-07-18 08:08:28 51°15.59 2°53.347 17.2378 4.458327 34.390492 -3.020363
2011-07-18 08:08:32 51°15.579 2°53.358 17.2375 4.459261 34.400605 -3.020363
2011-07-18 08:08:36 51°15.566 2°53.367 17.2368 4.459261 34.400605 -3.020363
2011-07-18 08:08:42 51°15.548 2°53.383 17.231 4.459054 34.400863 -3.020363
2011-07-18 08:08:48 51°15.531 2°53.397 17.2327 4.459365 34.404235 -3.020363
2011-07-18 08:08:52 51°15.519 2°53.408 17.2362 4.457394 34.384479 -3.020363
2011-07-18 08:08:56 51°15.507 2°53.42 17.2322 4.458016 34.388488 -3.020363
2011-07-18 08:09:02 51°15.489 2°53.434 17.2458 4.456771 34.375689 -3.020363
2011-07-18 08:09:08 51°15.471 2°53.451 17.2357 4.456771 34.375689 -3.020363
2011-07-18 08:09:12 51°15.459 2°53.46 17.2436 4.45812 34.388017 -3.020363
2011-07-18 08:09:16 51°15.447 2°53.472 17.2418 4.457912 34.387592 -3.020363
2011-07-18 08:09:22 51°15.429 2°53.485 17.2568 4.458224 34.391646 -3.020363
2011-07-18 08:09:28 51°15.41 2°53.499 17.2337 4.459365 34.402868 -3.020363
2011-07-18 08:09:32 51°15.398 2°53.509 17.2607 4.458742 34.396125 -3.020363
2011-07-18 08:09:36 51°15.386 2°53.517 17.2388 4.458742 34.396125 -3.020363
2011-07-18 08:09:42 51°15.367 2°53.53 17.2592 4.458431 34.393438 -3.020363
2011-07-18 08:09:48 51°15.348 2°53.543 17.275 4.45812 34.390067 -3.020363
2011-07-18 08:09:52 51°15.335 2°53.549 17.246 4.457912 34.386909 -3.020363
2011-07-18 08:09:58 51°15.316 2°53.56 17.2615 4.456771 34.375006 -3.020363
2011-07-18 08:10:02 51°15.303 2°53.568 17.2541 4.457809 34.381232 -3.020363
2011-07-18 08:10:08 51°15.283 2°53.575 17.2705 4.457809 34.381232 -3.020363
2011-07-18 08:10:12 51°15.271 2°53.584 17.2449 4.456771 34.37091 -3.020363
2011-07-18 08:10:16 51°15.258 2°53.589 17.2529 4.455838 34.36012 -3.020363
2011-07-18 08:10:22 51°15.239 2°53.6 17.2581 4.450755 34.311474 -3.020363
2011-07-18 08:10:28 51°15.218 2°53.608 17.2443 4.448888 34.29468 -3.020363
2011-07-18 08:10:32 51°15.205 2°53.614 17.2432 4.445465 34.265142 -3.020363
2011-07-18 08:10:36 51°15.192 2°53.62 17.2404 4.445465 34.265142 -3.020363
2011-07-18 08:10:42 51°15.173 2°53.628 17.2437 4.443909 34.251717 -3.020363
2011-07-18 08:10:48 51°15.153 2°53.636 17.2366 4.441005 34.228019 -3.020363
2011-07-18 08:10:52 51°15.14 2°53.643 17.25 4.437582 34.19849 -3.020363
2011-07-18 08:10:56 51°15.126 2°53.645 17.2568 4.433744 34.166743 -3.020363
2011-07-18 08:11:02 51°15.106 2°53.656 17.259 4.432188 34.156714 -3.020363
2011-07-18 08:11:07 51°15.09 2°53.662 17.247 4.432188 34.156714 -3.020363
2011-07-18 08:11:12 51°15.073 2°53.669 17.2471 4.430217 34.142427 -3.020363
2011-07-18 08:11:16 51°15.06 2°53.675 17.2422 4.427002 34.115371 -3.020363
2011-07-18 08:11:22 51°15.04 2°53.683 17.2414 4.424824 34.097263 -3.020363
2011-07-18 08:11:28 51°15.019 2°53.693 17.253 4.422749 34.078696 -3.020363
2011-07-18 08:11:32 51°15.006 2°53.696 17.2524 4.419326 34.043098 -3.020363
2011-07-18 08:11:36 51°14.993 2°53.702 17.2592 4.419326 34.043098 -3.020363
2011-07-18 08:11:42 51°14.973 2°53.711 17.2532 4.417978 34.030798 -3.020363
2011-07-18 08:11:48 51°14.953 2°53.718 17.2682 4.417978 34.032825 -3.020363
2011-07-18 08:11:52 51°14.94 2°53.725 17.2535 4.418497 34.037972 -3.020363
2011-07-18 08:11:58 51°14.92 2°53.733 17.2481 4.419223 34.044907 -3.020363
2011-07-18 08:12:02 51°14.907 2°53.738 17.2496 4.419119 34.043337 -3.020363
2011-07-18 08:12:08 51°14.887 2°53.743 17.2431 4.419119 34.043337 -3.020363
2011-07-18 08:12:12 51°14.874 2°53.748 17.2498 4.41663 34.019176 -3.020363
2011-07-18 08:12:16 51°14.86 2°53.75 17.2561 4.417252 34.023865 -3.020363
2011-07-18 08:12:22 51°14.84 2°53.754 17.2451 4.416422 34.015362 -3.020363
2011-07-18 08:12:28 51°14.819 2°53.758 17.2465 4.41663 34.019176 -3.020363
2011-07-18 08:12:32 51°14.805 2°53.76 17.2559 4.416526 34.020308 -3.020363
2011-07-18 08:12:36 51°14.792 2°53.762 17.2492 4.416526 34.020308 -3.020363
2011-07-18 08:12:43 51°14.768 2°53.766 17.2437 4.415696 34.01383 -3.020363
2011-07-18 08:12:48 51°14.751 2°53.768 17.2557 4.414451 34.003777 -3.020363
2011-07-18 08:12:52 51°14.737 2°53.769 17.2413 4.412584 33.98701 -3.020363
2011-07-18 08:12:56 51°14.723 2°53.771 17.2404 4.412273 33.985003 -3.020363
2011-07-18 08:13:02 51°14.703 2°53.774 17.2602 4.411858 33.982102 -3.020363
2011-07-18 08:13:08 51°14.681 2°53.775 17.2426 4.411858 33.982102 -3.020363
2011-07-18 08:13:12 51°14.668 2°53.777 17.2574 4.410925 33.974056 -3.020363
2011-07-18 08:13:16 51°14.654 2°53.781 17.2431 4.410095 33.966905 -3.020363
2011-07-18 08:13:22 51°14.633 2°53.781 17.2524 4.409058 33.957966 -3.020363
2011-07-18 08:13:28 51°14.613 2°53.781 17.2436 4.409369 33.961996 -3.020363
2011-07-18 08:13:32 51°14.599 2°53.783 17.2603 4.409162 33.959534 -3.020363
2011-07-18 08:13:36 51°14.585 2°53.781 17.255 4.409162 33.959534 -3.020363
2011-07-18 08:13:42 51°14.563 2°53.78 17.2678 4.407606 33.944104 -3.020363
2011-07-18 08:13:48 51°14.543 2°53.775 17.2573 4.407917 33.945438 -3.020363
2011-07-18 08:13:52 51°14.529 2°53.772 17.2474 4.408228 33.949467 -3.020363
2011-07-18 08:13:56 51°14.515 2°53.768 17.2468 4.408851 33.954156 -3.020363
2011-07-18 08:14:02 51°14.494 2°53.76 17.2635 4.407813 33.943196 -3.020363
2011-07-18 08:14:08 51°14.473 2°53.752 17.2527 4.407813 33.943196 -3.020363
2011-07-18 08:14:12 51°14.459 2°53.744 17.249 4.407606 33.93804 -3.020363
2011-07-18 08:14:18 51°14.439 2°53.733 17.2392 4.40688 33.930438 -3.020363
2011-07-18 08:14:22 51°14.426 2°53.725 17.2753 4.40688 33.930438 -3.020363
2011-07-18 08:14:28 51°14.406 2°53.712 17.2504 4.407398 33.936927 -3.020363
2011-07-18 08:14:32 51°14.393 2°53.701 17.2495 4.407087 33.934919 -3.020363
2011-07-18 08:14:36 51°14.38 2°53.691 17.2412 4.407087 33.934919 -3.020363
2011-07-18 08:14:42 51°14.361 2°53.673 17.2446 4.406361 33.928664 -3.020363
2011-07-18 08:14:48 51°14.343 2°53.654 17.2448 4.40688 33.934479 -3.020363
2011-07-18 08:14:52 51°14.331 2°53.64 17.2469 4.406465 33.932252 -3.020363
2011-07-18 08:14:56 51°14.319 2°53.626 17.2419 4.405117 33.919288 -3.020363
2011-07-18 08:15:02 51°14.302 2°53.604 17.2511 4.405117 33.920634 -3.020363
2011-07-18 08:15:08 51°14.285 2°53.582 17.2466 4.405117 33.920634 -3.020363
2011-07-18 08:15:12 51°14.275 2°53.565 17.2507 4.405532 33.926229 -3.020363
2011-07-18 08:15:16 51°14.264 2°53.549 17.2723 4.405635 33.92847 -3.020363
2011-07-18 08:15:22 51°14.249 2°53.523 17.2556 4.405324 33.926462 -3.020363
2011-07-18 08:15:28 51°14.235 2°53.496 17.2536 4.40522 33.925569 -3.020363
2011-07-18 08:15:32 51°14.226 2°53.477 17.257 4.404806 33.922667 -3.020363
2011-07-18 08:15:36 51°14.217 2°53.458 17.2492 4.404806 33.922667 -3.020363
2011-07-18 08:15:42 51°14.205 2°53.429 17.2479 4.404702 33.9211 -3.020363
2011-07-18 08:15:48 51°14.193 2°53.399 17.2509 4.403146 33.905675 -3.020363
2011-07-18 08:15:52 51°14.185 2°53.379 17.2613 4.403768 33.906998 -3.020363
2011-07-18 08:15:56 51°14.178 2°53.359 17.2535 4.403353 33.902751 -3.020363
2011-07-18 08:16:02 51°14.166 2°53.329 17.2598 4.403976 33.909458 -3.020363
2011-07-18 08:16:08 51°14.155 2°53.298 17.2507 4.403976 33.909458 -3.020363
2011-07-18 08:16:12 51°14.148 2°53.278 17.2646 4.403872 33.909238 -3.020363
2011-07-18 08:16:16 51°14.141 2°53.258 17.2503 4.404909 33.920194 -3.020363
2011-07-18 08:16:22 51°14.13 2°53.227 17.2549 4.404909 33.91952 -3.020363
2011-07-18 08:16:28 51°14.118 2°53.197 17.2547 4.404494 33.913253 -3.020363
2011-07-18 08:16:32 51°14.111 2°53.177 17.2546 4.405013 33.917048 -3.020363
2011-07-18 08:16:38 51°14.099 2°53.148 17.2744 4.405013 33.917048 -3.020363
2011-07-18 08:16:42 51°14.091 2°53.127 17.2574 4.405428 33.920622 -3.020363
2011-07-18 08:16:48 51°14.08 2°53.098 17.255 4.405324 33.919055 -3.020363
2011-07-18 08:16:52 51°14.072 2°53.078 17.2499 4.406258 33.92777 -3.020363
2011-07-18 08:16:56 51°14.064 2°53.059 17.2568 4.407398 33.9376 -3.020363
2011-07-18 08:17:02 51°14.052 2°53.03 17.2647 4.407917 33.942742 -3.020363
2011-07-18 08:17:08 51°14.04 2°53 17.2657 4.407917 33.942742 -3.020363
2011-07-18 08:17:12 51°14.031 2°52.981 17.2557 4.402731 33.896045 -3.020363
2011-07-18 08:17:16 51°14.023 2°52.961 17.2512 4.407917 33.939374 -3.020363
2011-07-18 08:17:22 51°14.011 2°52.933 17.2511 4.408436 33.945189 -3.020363
2011-07-18 08:17:28 51°13.998 2°52.904 17.2523 4.409058 33.951899 -3.020363
2011-07-18 08:17:32 51°13.989 2°52.885 17.2619 4.409265 33.953013 -3.020363
2011-07-18 08:17:36 51°13.981 2°52.866 17.2611 4.409265 33.953013 -3.020363
2011-07-18 08:17:42 51°13.968 2°52.837 17.2646 4.408643 33.946303 -3.020363
2011-07-18 08:17:47 51°13.958 2°52.813 17.2634 4.409369 33.953232 -3.020363
2011-07-18 08:17:52 51°13.947 2°52.789 17.2563 4.409888 33.959723 -3.020363
2011-07-18 08:17:56 51°13.939 2°52.77 17.2486 4.41051 33.96576 -3.020363
2011-07-18 08:18:02 51°13.926 2°52.741 17.2574 4.410406 33.964192 -3.020363
2011-07-18 08:18:08 51°13.913 2°52.712 17.2538 4.410406 33.964192 -3.020363
2011-07-18 08:18:12 51°13.905 2°52.693 17.2519 4.410406 33.962844 -3.020363
2011-07-18 08:18:16 51°13.896 2°52.674 17.2563 4.410199 33.959034 -3.020363